M I D A S
Marine Information and Data Acquisition System
Tripno 1678 of the Zeeleeuw from 2009-04-21 08:05:11 to 2009-04-21 13:59:22
Back to CruiseResearch ActivitiesStationsMapUnderway DataData graphs

EquipmentUnitsComment
TimeDGPSUTC
LatitudeDGPSDM.mWGS84
LongitudeDGPSDM.mWGS84
TemperatureSBE03/SBE38deg celciusITS90
ConductivitySBE21S/mITS90
SalinitySBE21 Practical Salinity Units
ChlorophylAChelsea fluorimeterg/lCalibrated in Aceton
Missing or incorrect values are displayed as -999
Sea surface data collected by the RV Zeeleeuw from 2009-04-21 07:56:58 to 2009-04-21 14:07:10
                                                                                    Next 1000 lines
Time Latitude Longitude Temperature Conductivity Salinity ChlorophylA
2009-04-21 07:57:07 51°13.662 2°55.957 -999 0.027389 0.148861 -0.687152
2009-04-21 07:57:13 51°13.663 2°55.954 -999 0.027389 0.148861 -0.687152
2009-04-21 07:57:18 51°13.664 2°55.952 -999 0.027389 0.148861 -0.687152
2009-04-21 07:57:24 51°13.665 2°55.947 -999 0.027389 0.148863 -0.687152
2009-04-21 07:57:29 51°13.666 2°55.944 -999 0.027389 0.148863 -0.687152
2009-04-21 07:57:34 51°13.667 2°55.939 -999 0.027389 0.148866 -0.687152
2009-04-21 07:57:39 51°13.668 2°55.935 -999 0.027389 0.148868 -0.687152
2009-04-21 07:57:44 51°13.67 2°55.93 -999 0.027389 0.148868 -0.687152
2009-04-21 07:57:49 51°13.671 2°55.925 -999 0.027389 0.148868 -0.687152
2009-04-21 07:57:54 51°13.672 2°55.919 -999 0.027389 0.148871 -0.687152
2009-04-21 07:57:59 51°13.674 2°55.914 -999 0.027389 0.148873 -0.687152
2009-04-21 07:58:04 51°13.675 2°55.908 -999 0.027389 0.148876 -0.687152
2009-04-21 07:58:09 51°13.677 2°55.902 -999 0.027389 0.148876 -0.687152
2009-04-21 07:58:14 51°13.679 2°55.895 -999 0.027389 0.148878 -0.687152
2009-04-21 07:58:19 51°13.68 2°55.889 -999 0.027389 0.148878 -0.687152
2009-04-21 07:58:24 51°13.681 2°55.882 -999 0.027389 0.148878 -0.687152
2009-04-21 07:58:29 51°13.683 2°55.875 -999 0.027389 0.148881 -0.687152
2009-04-21 07:58:34 51°13.684 2°55.868 -999 0.027389 0.148883 -0.687152
2009-04-21 07:58:39 51°13.684 2°55.861 -999 0.027389 0.148883 -0.687152
2009-04-21 07:58:44 51°13.685 2°55.854 -999 0.027389 0.148886 -0.687152
2009-04-21 07:58:49 51°13.686 2°55.847 -999 0.027389 0.148886 -0.687152
2009-04-21 07:58:54 51°13.687 2°55.84 -999 0.027389 0.148886 -0.687152
2009-04-21 07:58:59 51°13.689 2°55.832 -999 0.027389 0.148886 -0.687152
2009-04-21 07:59:04 51°13.69 2°55.824 -999 0.027389 0.148888 -0.687152
2009-04-21 07:59:09 51°13.692 2°55.817 -999 0.027389 0.148888 -0.687152
2009-04-21 07:59:14 51°13.693 2°55.811 -999 0.027389 0.148888 -0.687152
2009-04-21 07:59:19 51°13.694 2°55.806 -999 0.027389 0.148888 -0.687152
2009-04-21 07:59:24 51°13.695 2°55.803 -999 0.027389 0.148891 -0.687152
2009-04-21 07:59:29 51°13.695 2°55.801 -999 0.027286 0.148331 -0.687152
2009-04-21 07:59:34 51°13.695 2°55.8 -999 0.027389 0.148891 -0.687152
2009-04-21 07:59:39 51°13.695 2°55.799 -999 0.027389 0.148891 -0.687152
2009-04-21 07:59:43 51°13.694 2°55.799 -999 0.027389 0.148896 -0.687152
2009-04-21 07:59:49 51°13.694 2°55.796 -999 0.027389 0.148896 -0.687152
2009-04-21 07:59:54 51°13.696 2°55.792 -999 0.027389 0.148901 -0.687152
2009-04-21 07:59:58 51°13.697 2°55.789 -999 0.027389 0.148906 -0.687152
2009-04-21 08:00:03 51°13.699 2°55.783 -999 0.027389 0.148908 -0.687152
2009-04-21 08:00:09 51°13.703 2°55.776 -999 0.027389 0.148911 -0.687152
2009-04-21 08:00:14 51°13.705 2°55.77 -999 0.027389 0.148913 -0.687152
2009-04-21 08:00:19 51°13.709 2°55.763 -999 0.027389 0.148913 -0.687152
2009-04-21 08:00:24 51°13.712 2°55.757 -999 0.027389 0.148916 -0.687152
2009-04-21 08:00:29 51°13.715 2°55.751 -999 0.027389 0.148916 -0.687152
2009-04-21 08:00:34 51°13.719 2°55.744 -999 0.027389 0.148918 -0.687152
2009-04-21 08:00:39 51°13.723 2°55.738 -999 0.027389 0.148918 -0.687152
2009-04-21 08:00:44 51°13.727 2°55.732 -999 0.027389 0.148921 -0.687152
2009-04-21 08:00:49 51°13.732 2°55.726 -999 0.027389 0.148921 -0.687152
2009-04-21 08:00:54 51°13.736 2°55.72 -999 0.027389 0.148923 -0.687152
2009-04-21 08:00:59 51°13.741 2°55.714 -999 0.027389 0.148926 -0.687152
2009-04-21 08:01:04 51°13.746 2°55.708 -999 0.027389 0.148926 -0.687152
2009-04-21 08:01:09 51°13.751 2°55.703 -999 0.027389 0.148928 -0.687152
2009-04-21 08:01:14 51°13.756 2°55.698 -999 0.027389 0.148933 -0.687152
2009-04-21 08:01:19 51°13.761 2°55.692 -999 0.027389 0.148933 -0.687152
2009-04-21 08:01:24 51°13.767 2°55.687 -999 0.027389 0.148933 -0.687152
2009-04-21 08:01:29 51°13.773 2°55.682 -999 0.027389 0.148936 -0.687152
2009-04-21 08:01:34 51°13.779 2°55.677 -999 0.027389 0.148938 -0.687152
2009-04-21 08:01:39 51°13.786 2°55.672 -999 0.027389 0.148941 -0.687152
2009-04-21 08:01:44 51°13.793 2°55.668 -999 0.027389 0.148943 -0.687152
2009-04-21 08:01:49 51°13.8 2°55.663 -999 0.027389 0.148943 -0.687152
2009-04-21 08:01:54 51°13.807 2°55.659 -999 0.027389 0.148946 -0.687152
2009-04-21 08:01:59 51°13.813 2°55.656 -999 0.027389 0.148946 -0.687152
2009-04-21 08:02:04 51°13.82 2°55.652 -999 0.027389 0.148948 -0.687152
2009-04-21 08:02:09 51°13.827 2°55.649 -999 0.027389 0.148951 -0.687152
2009-04-21 08:02:14 51°13.834 2°55.646 -999 0.027389 0.148953 -0.652328
2009-04-21 08:02:19 51°13.841 2°55.643 -999 0.027389 0.148953 -0.652328
2009-04-21 08:02:24 51°13.848 2°55.64 -999 0.027389 0.148953 -0.687152
2009-04-21 08:02:29 51°13.854 2°55.637 -999 0.027389 0.148953 -0.687152
2009-04-21 08:02:34 51°13.86 2°55.635 -999 0.027389 0.148956 -0.687152
2009-04-21 08:02:39 51°13.866 2°55.633 -999 0.027389 0.148956 -0.687152
2009-04-21 08:02:44 51°13.872 2°55.632 -999 0.027389 0.148956 -0.687152
2009-04-21 08:02:49 51°13.878 2°55.632 -999 0.027389 0.148956 -0.687152
2009-04-21 08:02:54 51°13.883 2°55.632 -999 0.027286 0.148398 -0.687152
2009-04-21 08:02:59 51°13.887 2°55.632 -999 0.027286 0.148398 -0.687152
2009-04-21 08:03:04 51°13.892 2°55.632 -999 0.027286 0.1484 -0.687152
2009-04-21 08:03:09 51°13.896 2°55.632 -999 0.027286 0.148403 -0.687152
2009-04-21 08:03:14 51°13.9 2°55.633 -999 0.027286 0.148405 -0.687152
2009-04-21 08:03:19 51°13.904 2°55.633 -999 0.027286 0.148405 -0.687152
2009-04-21 08:03:24 51°13.908 2°55.634 -999 0.027286 0.148408 -0.687152
2009-04-21 08:03:29 51°13.911 2°55.635 -999 0.027286 0.14841 -0.687152
2009-04-21 08:03:34 51°13.914 2°55.635 -999 0.027286 0.14841 -0.687152
2009-04-21 08:03:38 51°13.915 2°55.635 -999 0.027286 0.14841 -0.687152
2009-04-21 08:03:43 51°13.916 2°55.635 -999 0.027286 0.14841 -0.687152
2009-04-21 08:03:48 51°13.916 2°55.633 -999 0.027286 0.14841 -0.687152
2009-04-21 08:03:53 51°13.915 2°55.631 -999 0.027286 0.148408 -0.687152
2009-04-21 08:03:58 51°13.914 2°55.629 -999 0.027286 0.14841 -0.687152
2009-04-21 08:04:02 51°13.913 2°55.626 -999 0.027286 0.148413 -0.687152
2009-04-21 08:04:07 51°13.912 2°55.623 -999 0.027286 0.148418 -0.687152
2009-04-21 08:04:12 51°13.912 2°55.62 -999 0.027286 0.148423 -0.687152
2009-04-21 08:04:17 51°13.911 2°55.617 -999 0.027286 0.148423 -0.687152
2009-04-21 08:04:22 51°13.911 2°55.615 -999 0.027389 0.148991 -0.687152
2009-04-21 08:04:27 51°13.911 2°55.614 -999 0.027389 0.148996 -0.687152
2009-04-21 08:04:32 51°13.911 2°55.614 -999 0.027389 0.148998 -0.687152
2009-04-21 08:04:36 51°13.911 2°55.615 -999 0.027389 0.148998 -0.687152
2009-04-21 08:04:41 51°13.912 2°55.617 -999 0.027389 0.149001 -0.687152
2009-04-21 08:04:46 51°13.912 2°55.62 -999 0.027389 0.149001 -0.687152
2009-04-21 08:04:51 51°13.912 2°55.622 -999 0.027389 0.149001 -0.687152
2009-04-21 08:04:56 51°13.912 2°55.625 -999 0.027286 0.14844 -0.687152
2009-04-21 08:05:02 51°13.912 2°55.628 -999 0.027286 0.148443 -0.687152
2009-04-21 08:05:07 51°13.912 2°55.63 -999 0.027286 0.148443 -0.687152
2009-04-21 08:05:13 51°13.912 2°55.63 -999 0.027286 0.148445 -0.687152
2009-04-21 08:05:19 51°13.913 2°55.629 -999 0.027286 0.148445 -0.687152
2009-04-21 08:05:24 51°13.913 2°55.628 -999 0.027286 0.148443 -0.687152
2009-04-21 08:05:29 51°13.914 2°55.627 -999 0.027286 0.148445 -0.687152
2009-04-21 08:05:34 51°13.915 2°55.625 -999 0.027286 0.148448 -0.687152
2009-04-21 08:05:39 51°13.916 2°55.622 -999 0.027286 0.14845 -0.687152
2009-04-21 08:05:44 51°13.917 2°55.62 -999 0.027286 0.148453 -0.687152
2009-04-21 08:05:49 51°13.919 2°55.617 -999 0.027286 0.148453 -0.687152
2009-04-21 08:05:54 51°13.921 2°55.615 -999 0.027286 0.148455 -0.687152
2009-04-21 08:05:58 51°13.922 2°55.612 -999 0.027286 0.148458 -0.721976
2009-04-21 08:06:03 51°13.924 2°55.61 -999 0.027286 0.14846 -0.687152
2009-04-21 08:06:08 51°13.927 2°55.606 -999 0.027286 0.14846 -0.687152
2009-04-21 08:06:14 51°13.931 2°55.602 -999 0.027286 0.14846 -0.687152
2009-04-21 08:06:18 51°13.934 2°55.598 -999 0.027286 0.14846 -0.687152
2009-04-21 08:06:23 51°13.94 2°55.593 -999 0.027286 0.148463 -0.687152
2009-04-21 08:06:28 51°13.947 2°55.587 -999 0.027286 0.148465 -0.687152
2009-04-21 08:06:33 51°13.953 2°55.581 -999 0.027286 0.14847 -0.687152
2009-04-21 08:06:38 51°13.961 2°55.573 -999 0.027286 0.14847 -0.687152
2009-04-21 08:06:42 51°13.967 2°55.567 -999 0.027286 0.148475 -0.687152
2009-04-21 08:06:47 51°13.976 2°55.558 -999 0.027286 0.148475 -0.687152
2009-04-21 08:06:52 51°13.985 2°55.55 -999 0.027286 0.148477 -0.687152
2009-04-21 08:06:57 51°13.993 2°55.541 -999 0.027286 0.14848 -0.687152
2009-04-21 08:07:02 51°14.004 2°55.532 -999 0.027286 0.14848 -0.687152
2009-04-21 08:07:06 51°14.012 2°55.525 -999 0.027286 0.148485 -0.687152
2009-04-21 08:07:11 51°14.022 2°55.516 -999 0.027286 0.148487 -0.721976
2009-04-21 08:07:16 51°14.032 2°55.505 -999 0.027286 0.148487 -0.721976
2009-04-21 08:07:21 51°14.042 2°55.496 -999 0.027286 0.148487 -0.687152
2009-04-21 08:07:26 51°14.053 2°55.486 -999 0.027286 0.14849 -0.687152
2009-04-21 08:07:31 51°14.064 2°55.476 -999 0.027286 0.148492 -0.687152
2009-04-21 08:07:35 51°14.072 2°55.468 -999 0.027286 0.148495 -0.687152
2009-04-21 08:07:41 51°14.085 2°55.456 -999 0.027286 0.148497 -0.687152
2009-04-21 08:07:46 51°14.097 2°55.446 -999 0.027286 0.148497 -0.687152
2009-04-21 08:07:50 51°14.105 2°55.437 -999 0.027286 0.148497 -0.687152
2009-04-21 08:07:55 51°14.116 2°55.427 -999 0.027286 0.1485 -0.687152
2009-04-21 08:08:01 51°14.129 2°55.414 -999 0.027286 0.148502 -0.721976
2009-04-21 08:08:06 51°14.14 2°55.403 -999 0.027286 0.148505 -0.687152
2009-04-21 08:08:10 51°14.149 2°55.394 -999 0.027286 0.148505 -0.687152
2009-04-21 08:08:15 51°14.159 2°55.383 -999 0.027286 0.148505 -0.687152
2009-04-21 08:08:21 51°14.172 2°55.369 -999 0.027286 0.148505 -0.687152
2009-04-21 08:08:26 51°14.183 2°55.358 -999 0.027286 0.148507 -0.687152
2009-04-21 08:08:30 51°14.191 2°55.348 -999 0.027286 0.14851 -0.687152
2009-04-21 08:08:35 51°14.202 2°55.336 -999 0.027286 0.148507 -0.687152
2009-04-21 08:08:41 51°14.214 2°55.323 -999 0.027286 0.14851 -0.687152
2009-04-21 08:08:46 51°14.225 2°55.312 -999 0.027286 0.14851 -0.687152
2009-04-21 08:08:50 51°14.234 2°55.303 -999 0.027286 0.14851 -0.687152
2009-04-21 08:08:55 51°14.245 2°55.292 -999 0.027286 0.148512 -0.687152
2009-04-21 08:09:00 51°14.256 2°55.28 -999 0.027286 0.148515 -0.721976
2009-04-21 08:09:06 51°14.269 2°55.267 -999 0.027286 0.148515 -0.687152
2009-04-21 08:09:11 51°14.279 2°55.254 -999 0.027286 0.14852 -0.687152
2009-04-21 08:09:15 51°14.286 2°55.243 -999 0.027286 0.14852 -0.687152
2009-04-21 08:09:21 51°14.298 2°55.226 -999 0.027286 0.14852 -0.687152
2009-04-21 08:09:25 51°14.305 2°55.215 -999 0.027286 0.14852 -0.687152
2009-04-21 08:09:30 51°14.315 2°55.202 -999 0.027286 0.148522 -0.687152
2009-04-21 08:09:35 51°14.325 2°55.188 -999 0.027286 0.148522 -0.687152
2009-04-21 08:09:41 51°14.337 2°55.171 -999 0.027286 0.148522 -0.687152
2009-04-21 08:09:45 51°14.345 2°55.16 -999 0.027286 0.148522 -0.687152
2009-04-21 08:09:50 51°14.353 2°55.144 -999 0.027286 0.148522 -0.687152
2009-04-21 08:09:55 51°14.363 2°55.13 -999 0.027286 0.148525 -0.687152
2009-04-21 08:10:01 51°14.374 2°55.111 -999 0.027286 0.148527 -0.687152
2009-04-21 08:10:05 51°14.381 2°55.098 -999 0.027286 0.148527 -0.687152
2009-04-21 08:10:10 51°14.39 2°55.082 -999 0.027286 0.148525 -0.687152
2009-04-21 08:10:15 51°14.399 2°55.067 -999 0.027286 0.148525 -0.687152
2009-04-21 08:10:21 51°14.411 2°55.047 -999 0.027286 0.148527 -0.687152
2009-04-21 08:10:26 51°14.42 2°55.031 -999 0.027183 0.147971 -0.687152
2009-04-21 08:10:30 51°14.426 2°55.017 -999 0.027286 0.14853 -0.687152
2009-04-21 08:10:35 51°14.436 2°55 -999 0.027286 0.148535 -0.687152
2009-04-21 08:10:41 51°14.446 2°54.979 -999 0.027286 0.148535 -0.687152
2009-04-21 08:10:46 51°14.454 2°54.961 -999 0.027286 0.148535 -0.687152
2009-04-21 08:10:50 51°14.461 2°54.946 -999 0.027286 0.148537 -0.687152
2009-04-21 08:10:55 51°14.469 2°54.928 -999 0.027286 0.14854 -0.687152
2009-04-21 08:11:00 51°14.477 2°54.909 -999 0.027286 0.148547 -0.687152
2009-04-21 08:11:06 51°14.485 2°54.884 -999 0.027286 0.148545 -0.687152
2009-04-21 08:11:11 51°14.491 2°54.864 -999 0.027286 0.14855 -0.687152
2009-04-21 08:11:15 51°14.496 2°54.848 -999 0.027286 0.14855 -0.687152
2009-04-21 08:11:21 51°14.504 2°54.824 -999 0.027286 0.14855 -0.687152
2009-04-21 08:11:26 51°14.511 2°54.804 -999 0.027286 0.148552 -0.687152
2009-04-21 08:11:30 51°14.515 2°54.788 -999 0.027286 0.148552 -0.687152
2009-04-21 08:11:35 51°14.521 2°54.767 -999 0.027286 0.148557 -0.687152
2009-04-21 08:11:41 51°14.527 2°54.741 -999 0.027286 0.148557 -0.687152
2009-04-21 08:11:45 51°14.531 2°54.724 -999 0.027286 0.148557 -0.687152
2009-04-21 08:11:50 51°14.536 2°54.702 -999 0.027286 0.14856 -0.687152
2009-04-21 08:11:55 51°14.541 2°54.68 -999 0.027286 0.148562 -0.687152
2009-04-21 08:12:01 51°14.547 2°54.653 -999 0.027286 0.148567 -0.687152
2009-04-21 08:12:06 51°14.551 2°54.631 -999 0.027286 0.148567 -0.687152
2009-04-21 08:12:10 51°14.555 2°54.613 -999 0.027286 0.148567 -0.687152
2009-04-21 08:12:15 51°14.56 2°54.591 -999 0.027286 0.148567 -0.687152
2009-04-21 08:12:21 51°14.566 2°54.565 -999 0.027286 0.148572 -0.687152
2009-04-21 08:12:25 51°14.571 2°54.547 -999 0.027286 0.148572 -0.687152
2009-04-21 08:12:30 51°14.576 2°54.526 -999 0.027286 0.148575 -0.687152
2009-04-21 08:12:35 51°14.582 2°54.504 -999 0.027286 0.148577 -0.687152
2009-04-21 08:12:41 51°14.589 2°54.478 -999 0.027286 0.14858 -0.687152
2009-04-21 08:12:46 51°14.593 2°54.455 -999 0.027286 0.14858 -0.687152
2009-04-21 08:12:50 51°14.597 2°54.437 -999 0.027286 0.148582 -0.687152
2009-04-21 08:12:55 51°14.604 2°54.416 -999 0.027286 0.148585 -0.687152
2009-04-21 08:13:01 51°14.61 2°54.39 -999 0.027286 0.148592 -0.687152
2009-04-21 08:13:06 51°14.615 2°54.368 -999 0.027286 0.148595 -0.687152
2009-04-21 08:13:10 51°14.62 2°54.351 -999 0.027286 0.148597 -0.687152
2009-04-21 08:13:15 51°14.625 2°54.329 -999 0.027286 0.148597 -0.687152
2009-04-21 08:13:20 51°14.63 2°54.306 -999 0.027286 0.1486 -0.687152
2009-04-21 08:13:26 51°14.635 2°54.279 -999 0.027286 0.1486 -0.687152
2009-04-21 08:13:30 51°14.638 2°54.261 -999 0.027286 0.148602 -0.687152
2009-04-21 08:13:35 51°14.642 2°54.237 -999 0.027286 0.148602 -0.721976
2009-04-21 08:13:41 51°14.644 2°54.207 -999 0.027286 0.148607 -0.687152
2009-04-21 08:13:46 51°14.648 2°54.184 -999 0.027286 0.148607 -0.687152
2009-04-21 08:13:50 51°14.65 2°54.165 -999 0.027286 0.14861 -0.687152
2009-04-21 08:13:55 51°14.654 2°54.142 -999 0.027286 0.14861 -0.721976
2009-04-21 08:14:01 51°14.659 2°54.115 -999 0.027286 0.14861 -0.687152
2009-04-21 08:14:05 51°14.663 2°54.097 -999 0.027286 0.148612 -0.687152
2009-04-21 08:14:10 51°14.667 2°54.075 -999 0.027286 0.148615 -0.687152
2009-04-21 08:14:15 51°14.672 2°54.052 -999 0.027286 0.148615 -0.687152
2009-04-21 08:14:21 51°14.674 2°54.022 -999 0.027286 0.148617 -0.687152
2009-04-21 08:14:25 51°14.676 2°54.003 -999 0.027286 0.148617 -0.687152
2009-04-21 08:14:30 51°14.679 2°53.979 -999 0.027286 0.14862 -0.687152
2009-04-21 08:14:35 51°14.681 2°53.955 -999 0.027286 0.148622 -0.687152
2009-04-21 08:14:41 51°14.684 2°53.926 -999 0.027286 0.148622 -0.687152
2009-04-21 08:14:46 51°14.686 2°53.901 -999 0.027286 0.148622 -0.687152
2009-04-21 08:14:50 51°14.688 2°53.882 -999 0.027286 0.148627 -0.687152
2009-04-21 08:14:55 51°14.689 2°53.857 -999 0.027286 0.14863 -0.687152
2009-04-21 08:15:01 51°14.692 2°53.828 -999 0.027286 0.148632 -0.687152
2009-04-21 08:15:06 51°14.694 2°53.804 -999 0.027286 0.14863 -0.687152
2009-04-21 08:15:10 51°14.697 2°53.785 -999 0.027286 0.148632 -0.687152
2009-04-21 08:15:15 51°14.699 2°53.761 -999 0.027286 0.148632 -0.687152
2009-04-21 08:15:20 51°14.7 2°53.736 -999 0.027286 0.148635 -0.687152
2009-04-21 08:15:26 51°14.703 2°53.706 -999 0.027286 0.148637 -0.687152
2009-04-21 08:15:30 51°14.705 2°53.687 -999 0.027286 0.14864 -0.687152
2009-04-21 08:15:35 51°14.708 2°53.663 -999 0.027286 0.148642 -0.687152
2009-04-21 08:15:40 51°14.711 2°53.639 -999 0.027286 0.148645 -0.721976
2009-04-21 08:15:46 51°14.714 2°53.609 -999 0.027286 0.148645 -0.721976
2009-04-21 08:15:50 51°14.717 2°53.59 -999 0.027286 0.148645 -0.687152
2009-04-21 08:15:55 51°14.719 2°53.566 -999 0.027286 0.148647 -0.721976
2009-04-21 08:16:01 51°14.721 2°53.535 -999 0.027286 0.148652 -0.721976
2009-04-21 08:16:05 51°14.724 2°53.516 -999 0.027286 0.148652 -0.687152
2009-04-21 08:16:10 51°14.726 2°53.491 -999 0.027286 0.148657 -0.721976
2009-04-21 08:16:15 51°14.728 2°53.466 -999 0.027286 0.148657 -0.721976
2009-04-21 08:16:21 51°14.73 2°53.436 -999 0.027286 0.148657 -0.687152
2009-04-21 08:16:25 51°14.732 2°53.416 -999 0.027286 0.14866 -0.721976
2009-04-21 08:16:31 51°14.735 2°53.387 -999 0.027286 0.148662 -0.687152
2009-04-21 08:16:35 51°14.737 2°53.368 -999 0.027286 0.148662 -0.687152
2009-04-21 08:16:41 51°14.739 2°53.338 -999 0.027286 0.148662 -0.687152
2009-04-21 08:16:45 51°14.742 2°53.319 -999 0.027286 0.148662 -0.687152
2009-04-21 08:16:50 51°14.744 2°53.295 -999 0.027286 0.148665 -0.721976
2009-04-21 08:16:55 51°14.747 2°53.27 -999 0.027183 0.148106 -0.721976
2009-04-21 08:17:01 51°14.748 2°53.24 -999 0.027286 0.148667 -0.687152
2009-04-21 08:17:06 51°14.75 2°53.216 -999 0.027286 0.148667 -0.687152
2009-04-21 08:17:10 51°14.752 2°53.196 -999 0.027286 0.14867 -0.721976
2009-04-21 08:17:15 51°14.754 2°53.171 -999 0.027286 0.14867 -0.721976
2009-04-21 08:17:21 51°14.757 2°53.142 -999 0.027286 0.14867 -0.687152
2009-04-21 08:17:26 51°14.759 2°53.117 -999 0.027286 0.14867 -0.721976
2009-04-21 08:17:30 51°14.76 2°53.097 -999 0.027286 0.148675 -0.687152
2009-04-21 08:17:35 51°14.762 2°53.072 -999 0.027286 0.148675 -0.721976
2009-04-21 08:17:40 51°14.764 2°53.048 -999 0.027286 0.148677 -0.721976
2009-04-21 08:17:46 51°14.767 2°53.018 -999 0.027286 0.148677 -0.721976
2009-04-21 08:17:51 51°14.77 2°52.994 -999 0.027286 0.148677 -0.721976
2009-04-21 08:17:55 51°14.771 2°52.974 -999 0.027286 0.148677 -0.721976
2009-04-21 08:18:01 51°14.774 2°52.944 -999 0.027286 0.14868 -0.721976
2009-04-21 08:18:06 51°14.776 2°52.92 -999 0.027286 0.148682 -0.721976
2009-04-21 08:18:10 51°14.779 2°52.9 -999 0.027286 0.148687 -0.721976
2009-04-21 08:18:15 51°14.783 2°52.877 -999 0.027286 0.148687 -0.721976
2009-04-21 08:18:21 51°14.786 2°52.847 -999 0.027286 0.148687 -0.721976
2009-04-21 08:18:25 51°14.789 2°52.828 -999 0.027286 0.14869 -0.721976
2009-04-21 08:18:30 51°14.79 2°52.803 -999 0.027286 0.148692 -0.721976
2009-04-21 08:18:35 51°14.792 2°52.778 -999 0.027286 0.148695 -0.721976
2009-04-21 08:18:41 51°14.793 2°52.748 -999 0.027286 0.148697 -0.721976
2009-04-21 08:18:45 51°14.795 2°52.728 -999 0.027286 0.148697 -0.721976
2009-04-21 08:18:51 51°14.797 2°52.699 -999 0.027286 0.148697 -0.721976
2009-04-21 08:18:55 51°14.798 2°52.679 -999 0.027286 0.1487 -0.721976
2009-04-21 08:19:01 51°14.801 2°52.65 -999 0.027286 0.1487 -0.721976
2009-04-21 08:19:05 51°14.803 2°52.63 -999 0.027286 0.148702 -0.721976
2009-04-21 08:19:10 51°14.805 2°52.605 -999 0.027286 0.1487 -0.721976
2009-04-21 08:19:15 51°14.807 2°52.581 -999 0.027286 0.1487 -0.721976
2009-04-21 08:19:21 51°14.81 2°52.552 -999 0.027286 0.148702 -0.721976
2009-04-21 08:19:26 51°14.813 2°52.528 -999 0.027286 0.148705 -0.721976
2009-04-21 08:19:30 51°14.814 2°52.509 -999 0.027286 0.148705 -0.721976
2009-04-21 08:19:35 51°14.818 2°52.485 -999 0.027286 0.148705 -0.721976
2009-04-21 08:19:41 51°14.82 2°52.454 -999 0.027286 0.148707 -0.721976
2009-04-21 08:19:46 51°14.822 2°52.43 -999 0.027286 0.148707 -0.721976
2009-04-21 08:19:50 51°14.824 2°52.41 -999 0.027286 0.148707 -0.721976
2009-04-21 08:19:55 51°14.827 2°52.386 -999 0.027286 0.148712 -0.721976
2009-04-21 08:20:01 51°14.83 2°52.357 -999 0.027286 0.148715 -0.721976
2009-04-21 08:20:06 51°14.833 2°52.334 -999 0.027286 0.148715 -0.721976
2009-04-21 08:20:10 51°14.835 2°52.314 -999 0.027286 0.148717 -0.721976
2009-04-21 08:20:15 51°14.838 2°52.29 -999 0.027286 0.148717 -0.721976
2009-04-21 08:20:21 51°14.84 2°52.261 -999 0.027286 0.148717 -0.721976
2009-04-21 08:20:26 51°14.842 2°52.236 -999 0.027286 0.148717 -0.721976
2009-04-21 08:20:30 51°14.844 2°52.216 -999 0.027286 0.148717 -0.721976
2009-04-21 08:20:35 51°14.847 2°52.192 -999 0.027286 0.14872 -0.721976
2009-04-21 08:20:41 51°14.85 2°52.163 -999 0.027286 0.148722 -0.721976
2009-04-21 08:20:46 51°14.853 2°52.139 -999 0.027286 0.148722 -0.721976
2009-04-21 08:20:50 51°14.854 2°52.119 -999 0.027286 0.148722 -0.721976
2009-04-21 08:20:55 51°14.857 2°52.094 -999 0.027286 0.148725 -0.721976
2009-04-21 08:21:01 51°14.859 2°52.064 -999 0.027286 0.148727 -0.721976
2009-04-21 08:21:05 51°14.861 2°52.044 -999 0.027286 0.14873 -0.721976
2009-04-21 08:21:10 51°14.863 2°52.02 -999 0.027286 0.14873 -0.721976
2009-04-21 08:21:15 51°14.865 2°51.996 -999 0.027286 0.14873 -0.721976
2009-04-21 08:21:21 51°14.867 2°51.966 -999 0.027286 0.14873 -0.721976
2009-04-21 08:21:26 51°14.87 2°51.942 -999 0.027286 0.148732 -0.721976
2009-04-21 08:21:30 51°14.871 2°51.922 -999 0.027286 0.148732 -0.721976
2009-04-21 08:21:35 51°14.874 2°51.898 -999 0.027286 0.148735 -0.687152
2009-04-21 08:21:41 51°14.876 2°51.869 -999 0.027286 0.148737 -0.721976
2009-04-21 08:21:46 51°14.879 2°51.845 -999 0.027286 0.148737 -0.721976
2009-04-21 08:21:50 51°14.881 2°51.825 -999 0.027286 0.148737 -0.687152
2009-04-21 08:21:55 51°14.884 2°51.801 -999 0.027286 0.148737 -0.721976
2009-04-21 08:22:01 51°14.888 2°51.772 -999 0.027286 0.14874 -0.687152
2009-04-21 08:22:06 51°14.891 2°51.747 -999 0.027286 0.148742 -0.687152
2009-04-21 08:22:10 51°14.893 2°51.728 -999 0.027286 0.148745 -0.687152
2009-04-21 08:22:15 51°14.896 2°51.703 -999 0.027286 0.148745 -0.687152
2009-04-21 08:22:21 51°14.899 2°51.674 -999 0.027286 0.148745 -0.687152
2009-04-21 08:22:26 51°14.901 2°51.649 -999 0.027286 0.148747 -0.687152
2009-04-21 08:22:30 51°14.904 2°51.63 -999 0.027286 0.14875 -0.687152
2009-04-21 08:22:35 51°14.906 2°51.606 -999 0.027286 0.14875 -0.687152
2009-04-21 08:22:41 51°14.91 2°51.576 -999 0.027183 0.148193 -0.687152
2009-04-21 08:22:46 51°14.912 2°51.552 -999 0.027183 0.148193 -0.687152
2009-04-21 08:22:50 51°14.915 2°51.533 -999 0.027286 0.148752 -0.721976
2009-04-21 08:22:55 51°14.918 2°51.509 -999 0.027286 0.14876 -0.687152
2009-04-21 08:23:01 51°14.921 2°51.479 -999 0.027183 0.148198 -0.687152
2009-04-21 08:23:05 51°14.924 2°51.46 -999 0.027286 0.148765 -0.687152
2009-04-21 08:23:10 51°14.926 2°51.435 -999 0.027286 0.148767 -0.687152
2009-04-21 08:23:15 51°14.929 2°51.41 -999 0.027286 0.148767 -0.687152
2009-04-21 08:23:21 51°14.931 2°51.38 -999 0.027286 0.148772 -0.687152
2009-04-21 08:23:25 51°14.934 2°51.36 -999 0.027286 0.148772 -0.687152
2009-04-21 08:23:30 51°14.937 2°51.335 -999 0.027286 0.148775 -0.687152
2009-04-21 08:23:35 51°14.939 2°51.311 -999 0.027286 0.148777 -0.687152
2009-04-21 08:23:41 51°14.942 2°51.281 -999 0.027286 0.148777 -0.687152
2009-04-21 08:23:46 51°14.945 2°51.256 -999 0.027286 0.148777 -0.687152
2009-04-21 08:23:50 51°14.947 2°51.236 -999 0.027286 0.14878 -0.687152
2009-04-21 08:23:55 51°14.95 2°51.21 -999 0.027286 0.148777 -0.687152
2009-04-21 08:24:01 51°14.953 2°51.181 -999 0.027286 0.14878 -0.687152
2009-04-21 08:24:06 51°14.955 2°51.156 -999 0.027286 0.14878 -0.687152
2009-04-21 08:24:10 51°14.957 2°51.135 -999 0.027286 0.14878 -0.687152
2009-04-21 08:24:15 51°14.959 2°51.11 -999 0.027286 0.14878 -0.687152
2009-04-21 08:24:21 51°14.962 2°51.08 -999 0.027286 0.148782 -0.687152
2009-04-21 08:24:26 51°14.964 2°51.055 -999 0.027286 0.148785 -0.687152
2009-04-21 08:24:30 51°14.966 2°51.035 -999 0.027183 0.148223 -0.687152
2009-04-21 08:24:35 51°14.968 2°51.011 -999 0.027286 0.148787 -0.687152
2009-04-21 08:24:41 51°14.971 2°50.981 -999 0.027286 0.14879 -0.687152
2009-04-21 08:24:46 51°14.973 2°50.956 -999 0.027286 0.14879 -0.687152
2009-04-21 08:24:50 51°14.975 2°50.936 -999 0.027286 0.148787 -0.687152
2009-04-21 08:24:55 51°14.977 2°50.91 -999 0.027286 0.148792 -0.687152
2009-04-21 08:25:01 51°14.98 2°50.881 -999 0.027286 0.14879 -0.721976
2009-04-21 08:25:05 51°14.982 2°50.861 -999 0.027286 0.148792 -0.721976
2009-04-21 08:25:11 51°14.985 2°50.831 -999 0.027183 0.14823 -0.721976
2009-04-21 08:25:15 51°14.987 2°50.811 -999 0.027183 0.14823 -0.721976
2009-04-21 08:25:21 51°14.989 2°50.781 -999 0.027286 0.148797 -0.721976
2009-04-21 08:25:25 51°14.992 2°50.762 -999 0.027183 0.148235 -0.721976
2009-04-21 08:25:30 51°14.994 2°50.738 -999 0.027286 0.148797 -0.687152
2009-04-21 08:25:35 51°14.997 2°50.714 -999 0.027286 0.148802 -0.721976
2009-04-21 08:25:41 51°15 2°50.686 -999 0.027286 0.148802 -0.687152
2009-04-21 08:25:46 51°15.002 2°50.663 -999 0.027286 0.148802 -0.687152
2009-04-21 08:25:50 51°15.004 2°50.645 -999 0.027183 0.14824 -0.721976
2009-04-21 08:25:55 51°15.007 2°50.623 -999 0.027183 0.148245 -0.721976
2009-04-21 08:26:01 51°15.009 2°50.596 -999 0.027286 0.148805 -0.687152
2009-04-21 08:26:05 51°15.012 2°50.578 -999 0.027286 0.148807 -0.721976
2009-04-21 08:26:10 51°15.014 2°50.556 -999 0.027286 0.148812 -0.687152
2009-04-21 08:26:15 51°15.016 2°50.536 -999 0.027286 0.148812 -0.721976
2009-04-21 08:26:21 51°15.021 2°50.515 -999 0.027286 0.148812 -0.721976
2009-04-21 08:26:26 51°15.026 2°50.501 -999 0.027286 0.148812 -0.687152
2009-04-21 08:26:30 51°15.031 2°50.491 -999 0.027286 0.148817 -0.721976
2009-04-21 08:26:35 51°15.037 2°50.481 -999 0.027286 0.14882 -0.721976
2009-04-21 08:26:41 51°15.044 2°50.471 -999 0.027286 0.148822 -0.721976
2009-04-21 08:26:46 51°15.05 2°50.464 -999 0.027286 0.148822 -0.721976
2009-04-21 08:26:50 51°15.054 2°50.459 -999 0.027286 0.148825 -0.687152
2009-04-21 08:26:55 51°15.059 2°50.454 -999 0.027286 0.148825 -0.721976
2009-04-21 08:27:01 51°15.066 2°50.449 -999 0.027286 0.148827 -0.721976
2009-04-21 08:27:06 51°15.072 2°50.447 -999 0.027286 0.148827 -0.687152
2009-04-21 08:27:10 51°15.077 2°50.445 -999 0.027286 0.148825 -0.721976
2009-04-21 08:27:15 51°15.083 2°50.444 -999 0.027286 0.148825 -0.721976
2009-04-21 08:27:21 51°15.09 2°50.444 -999 0.027286 0.148825 -0.721976
2009-04-21 08:27:26 51°15.096 2°50.444 -999 0.027286 0.148827 -0.721976
2009-04-21 08:27:30 51°15.101 2°50.446 -999 0.027183 0.148268 -0.721976
2009-04-21 08:27:35 51°15.106 2°50.449 -999 0.027286 0.148832 -0.721976
2009-04-21 08:27:41 51°15.113 2°50.453 -999 0.027286 0.148835 -0.721976
2009-04-21 08:27:45 51°15.117 2°50.457 -999 0.027286 0.148835 -0.721976
2009-04-21 08:27:50 51°15.122 2°50.462 -999 0.027286 0.148837 -0.721976
2009-04-21 08:27:55 51°15.126 2°50.468 -999 0.027183 0.148278 -0.721976
2009-04-21 08:28:01 51°15.131 2°50.476 -999 0.027183 0.148278 -0.721976
2009-04-21 08:28:06 51°15.135 2°50.482 -999 0.027183 0.14828 -0.721976
2009-04-21 08:28:10 51°15.138 2°50.488 -999 0.027183 0.148283 -0.721976
2009-04-21 08:28:15 51°15.141 2°50.495 -999 0.027183 0.148283 -0.721976
2009-04-21 08:28:21 51°15.144 2°50.504 -999 0.027286 0.14885 -0.721976
2009-04-21 08:28:26 51°15.146 2°50.511 -999 0.027183 0.148288 -0.721976
2009-04-21 08:28:30 51°15.148 2°50.516 -999 0.027286 0.148852 -0.687152
2009-04-21 08:28:35 51°15.151 2°50.522 -999 0.027183 0.14829 -0.721976
2009-04-21 08:28:41 51°15.153 2°50.53 -999 0.027286 0.148857 -0.721976
2009-04-21 08:28:46 51°15.154 2°50.536 -999 0.027286 0.148857 -0.721976
2009-04-21 08:28:50 51°15.155 2°50.54 -999 0.027286 0.14886 -0.721976
2009-04-21 08:28:55 51°15.155 2°50.546 -999 0.027183 0.1483 -0.721976
2009-04-21 08:29:01 51°15.155 2°50.551 -999 0.027183 0.1483 -0.687152
2009-04-21 08:29:06 51°15.155 2°50.555 -999 0.027183 0.148305 -0.721976
2009-04-21 08:29:10 51°15.156 2°50.558 -999 0.027183 0.148305 -0.721976
2009-04-21 08:29:15 51°15.156 2°50.561 -999 0.027183 0.148305 -0.721976
2009-04-21 08:29:20 51°15.156 2°50.564 -999 0.02708 0.147745 -0.721976
2009-04-21 08:29:26 51°15.157 2°50.568 -999 0.02708 0.147745 -0.721976
2009-04-21 08:29:31 51°15.157 2°50.571 -999 0.02708 0.147748 -0.721976
2009-04-21 08:29:35 51°15.157 2°50.574 -999 0.02708 0.14775 -0.721976
2009-04-21 08:29:41 51°15.157 2°50.577 -999 0.02708 0.147753 -0.721976
2009-04-21 08:29:46 51°15.157 2°50.58 -999 0.02708 0.147753 -0.721976
2009-04-21 08:29:50 51°15.157 2°50.583 -999 0.02708 0.147753 -0.721976
2009-04-21 08:29:55 51°15.157 2°50.586 -999 0.02708 0.147758 -0.721976
2009-04-21 08:30:01 51°15.157 2°50.589 -999 0.02708 0.147758 -0.687152
2009-04-21 08:30:05 51°15.157 2°50.591 -999 0.027183 0.148323 -0.721976
2009-04-21 08:30:10 51°15.157 2°50.594 -999 0.02708 0.147763 -0.721976
2009-04-21 08:30:15 51°15.157 2°50.597 -999 0.02708 0.147763 -0.721976
2009-04-21 08:30:21 51°15.157 2°50.6 -999 0.02708 0.147768 -0.721976
2009-04-21 08:30:25 51°15.157 2°50.602 -999 0.02708 0.147768 -0.721976
2009-04-21 08:30:30 51°15.156 2°50.605 -999 0.02708 0.147773 -0.721976
2009-04-21 08:30:35 51°15.156 2°50.607 -999 0.02708 0.147775 -0.721976
2009-04-21 08:30:41 51°15.156 2°50.611 -999 0.02708 0.14778 -0.721976
2009-04-21 08:30:46 51°15.156 2°50.613 -999 0.02708 0.14778 -0.721976
2009-04-21 08:30:50 51°15.156 2°50.615 -999 0.02708 0.147783 -0.721976
2009-04-21 08:30:55 51°15.155 2°50.618 -999 0.02708 0.147788 -0.721976
2009-04-21 08:31:01 51°15.155 2°50.621 -999 0.02708 0.14779 -0.721976
2009-04-21 08:31:06 51°15.155 2°50.623 -999 0.027183 0.148355 -0.721976
2009-04-21 08:31:10 51°15.155 2°50.625 -999 0.02708 0.147795 -0.721976
2009-04-21 08:31:15 51°15.155 2°50.628 -999 0.02708 0.147795 -0.721976
2009-04-21 08:31:21 51°15.154 2°50.631 -999 0.02708 0.147798 -0.721976
2009-04-21 08:31:26 51°15.154 2°50.634 -999 0.02708 0.1478 -0.721976
2009-04-21 08:31:30 51°15.154 2°50.636 -999 0.02708 0.1478 -0.721976
2009-04-21 08:31:35 51°15.154 2°50.638 -999 0.02708 0.1478 -0.721976
2009-04-21 08:31:41 51°15.154 2°50.641 -999 0.02708 0.147805 -0.721976
2009-04-21 08:31:46 51°15.153 2°50.644 -999 0.02708 0.147805 -0.721976
2009-04-21 08:31:50 51°15.153 2°50.646 -999 0.02708 0.147808 -0.721976
2009-04-21 08:31:55 51°15.153 2°50.648 -999 0.02708 0.147808 -0.721976
2009-04-21 08:32:01 51°15.153 2°50.651 -999 0.02708 0.14781 -0.721976
2009-04-21 08:32:06 51°15.153 2°50.654 -999 0.02708 0.147813 -0.721976
2009-04-21 08:32:10 51°15.153 2°50.655 -999 0.02708 0.147815 -0.721976
2009-04-21 08:32:15 51°15.153 2°50.658 -999 0.02708 0.147815 -0.721976
2009-04-21 08:32:21 51°15.153 2°50.661 -999 0.02708 0.14782 -0.721976
2009-04-21 08:32:26 51°15.153 2°50.663 -999 0.02708 0.147825 -0.721976
2009-04-21 08:32:30 51°15.153 2°50.665 -999 0.02708 0.14783 -0.721976
2009-04-21 08:32:35 51°15.153 2°50.668 -999 0.02708 0.147837 -0.721976
2009-04-21 08:32:41 51°15.153 2°50.671 -999 0.02708 0.147842 -0.721976
2009-04-21 08:32:45 51°15.153 2°50.673 -999 0.02708 0.147842 -0.721976
2009-04-21 08:32:50 51°15.152 2°50.675 -999 0.02708 0.147847 -0.687152
2009-04-21 08:32:55 51°15.152 2°50.678 -999 0.02708 0.147855 -0.721976
2009-04-21 08:33:01 51°15.152 2°50.681 -999 0.02708 0.14786 -0.721976
2009-04-21 08:33:06 51°15.152 2°50.683 -999 0.02708 0.147862 -0.721976
2009-04-21 08:33:10 51°15.152 2°50.685 -999 0.02708 0.147867 -0.687152
2009-04-21 08:33:15 51°15.152 2°50.687 -999 0.02708 0.147867 -0.687152
2009-04-21 08:33:21 51°15.153 2°50.69 -999 0.02708 0.14787 -0.721976
2009-04-21 08:33:26 51°15.153 2°50.693 -999 0.02708 0.147872 -0.721976
2009-04-21 08:33:30 51°15.153 2°50.695 -999 0.02708 0.147872 -0.721976
2009-04-21 08:33:35 51°15.153 2°50.697 -999 0.02708 0.147875 -0.721976
2009-04-21 08:33:41 51°15.152 2°50.7 -999 0.02708 0.147872 -0.721976
2009-04-21 08:33:46 51°15.153 2°50.702 -999 0.02708 0.147872 -0.721976
2009-04-21 08:33:50 51°15.153 2°50.705 -999 0.027183 0.148435 -0.687152
2009-04-21 08:33:55 51°15.153 2°50.707 -999 0.02708 0.14787 -0.721976
2009-04-21 08:34:01 51°15.153 2°50.71 -999 0.02708 0.14787 -0.687152
2009-04-21 08:34:06 51°15.153 2°50.712 -999 0.02708 0.14787 -0.721976
2009-04-21 08:34:10 51°15.153 2°50.714 -999 0.02708 0.14787 -0.721976
2009-04-21 08:34:15 51°15.153 2°50.717 -999 0.02708 0.14787 -0.721976
2009-04-21 08:34:21 51°15.153 2°50.72 -999 0.02708 0.14787 -0.721976
2009-04-21 08:34:25 51°15.153 2°50.721 -999 0.02708 0.147872 -0.687152
2009-04-21 08:34:31 51°15.153 2°50.725 -999 0.02708 0.147875 -0.721976
2009-04-21 08:34:35 51°15.153 2°50.727 -999 0.02708 0.147875 -0.721976
2009-04-21 08:34:41 51°15.153 2°50.731 -999 0.02708 0.147875 -0.721976
2009-04-21 08:34:45 51°15.153 2°50.733 -999 0.02708 0.147875 -0.721976
2009-04-21 08:34:50 51°15.152 2°50.737 -999 0.02708 0.147877 -0.721976
2009-04-21 08:34:55 51°15.152 2°50.741 -999 0.02708 0.147875 -0.721976
2009-04-21 08:35:01 51°15.151 2°50.748 -999 0.02708 0.147875 -0.687152
2009-04-21 08:35:06 51°15.149 2°50.754 -999 0.02708 0.147875 -0.721976
2009-04-21 08:35:10 51°15.148 2°50.759 -999 0.02708 0.147877 -0.721976
2009-04-21 08:35:15 51°15.146 2°50.766 -999 0.02708 0.147877 -0.721976
2009-04-21 08:35:21 51°15.142 2°50.774 -999 0.02708 0.14788 -0.721976
2009-04-21 08:35:26 51°15.139 2°50.78 -999 0.02708 0.14788 -0.721976
2009-04-21 08:35:30 51°15.136 2°50.784 -999 0.02708 0.147882 -0.721976
2009-04-21 08:35:35 51°15.132 2°50.789 -999 0.02708 0.147885 -0.721976
2009-04-21 08:35:41 51°15.127 2°50.793 -999 0.02708 0.147887 -0.721976
2009-04-21 08:35:46 51°15.123 2°50.796 -999 0.02708 0.147887 -0.721976
2009-04-21 08:35:51 51°15.118 2°50.798 -999 0.02708 0.147887 -0.687152
2009-04-21 08:35:55 51°15.115 2°50.798 -999 0.02708 0.147892 -0.721976
2009-04-21 08:36:01 51°15.109 2°50.798 -999 0.02708 0.147895 -0.721976
2009-04-21 08:36:06 51°15.105 2°50.796 -999 0.02708 0.147897 -0.721976
2009-04-21 08:36:10 51°15.102 2°50.794 -999 0.02708 0.1479 -0.721976
2009-04-21 08:36:15 51°15.099 2°50.791 -999 0.02708 0.1479 -0.721976
2009-04-21 08:36:21 51°15.094 2°50.787 -999 0.02708 0.1479 -0.721976
2009-04-21 08:36:26 51°15.091 2°50.782 -999 0.026978 0.147342 -0.721976
2009-04-21 08:36:30 51°15.089 2°50.777 -999 0.02708 0.147905 -0.721976
2009-04-21 08:36:35 51°15.086 2°50.771 -999 0.02708 0.147907 -0.721976
2009-04-21 08:36:41 51°15.083 2°50.763 -999 0.02708 0.14791 -0.721976
2009-04-21 08:36:46 51°15.08 2°50.756 -999 0.02708 0.14791 -0.721976
2009-04-21 08:36:50 51°15.078 2°50.75 -999 0.02708 0.147915 -0.721976
2009-04-21 08:36:55 51°15.077 2°50.742 -999 0.02708 0.14792 -0.721976
2009-04-21 08:37:01 51°15.074 2°50.732 -999 0.02708 0.147922 -0.721976
2009-04-21 08:37:06 51°15.073 2°50.724 -999 0.02708 0.147927 -0.721976
2009-04-21 08:37:10 51°15.072 2°50.717 -999 0.02708 0.147932 -0.721976
2009-04-21 08:37:15 51°15.071 2°50.709 -999 0.02708 0.147932 -0.721976
2009-04-21 08:37:21 51°15.069 2°50.699 -999 0.02708 0.147935 -0.721976
2009-04-21 08:37:26 51°15.068 2°50.691 -999 0.02708 0.147937 -0.721976
2009-04-21 08:37:30 51°15.067 2°50.685 -999 0.02708 0.14794 -0.721976
2009-04-21 08:37:35 51°15.067 2°50.677 -999 0.02708 0.14794 -0.721976
2009-04-21 08:37:41 51°15.066 2°50.667 -999 0.02708 0.147942 -0.721976
2009-04-21 08:37:46 51°15.065 2°50.66 -999 0.02708 0.147942 -0.721976
2009-04-21 08:37:50 51°15.064 2°50.654 -999 0.02708 0.147945 -0.721976
2009-04-21 08:37:55 51°15.063 2°50.646 -999 0.02708 0.147947 -0.721976
2009-04-21 08:38:01 51°15.063 2°50.637 -999 0.02708 0.147947 -0.721976
2009-04-21 08:38:06 51°15.062 2°50.63 -999 0.02708 0.14795 -0.721976
2009-04-21 08:38:10 51°15.061 2°50.624 -999 0.02708 0.14795 -0.721976
2009-04-21 08:38:15 51°15.06 2°50.617 -999 0.02708 0.14795 -0.721976
2009-04-21 08:38:21 51°15.059 2°50.608 -999 0.02708 0.147952 -0.721976
2009-04-21 08:38:26 51°15.058 2°50.601 -999 0.02708 0.14795 -0.721976
2009-04-21 08:38:31 51°15.057 2°50.594 -999 0.026978 0.147389 -0.721976
2009-04-21 08:38:35 51°15.056 2°50.588 -999 0.02708 0.147952 -0.721976
2009-04-21 08:38:41 51°15.054 2°50.58 -999 0.026978 0.147392 -0.721976
2009-04-21 08:38:46 51°15.053 2°50.573 -999 0.026978 0.147392 -0.721976
2009-04-21 08:38:50 51°15.052 2°50.567 -999 0.02708 0.147957 -0.721976
2009-04-21 08:38:55 51°15.05 2°50.56 -999 0.02708 0.147957 -0.721976
2009-04-21 08:39:01 51°15.048 2°50.552 -999 0.02708 0.147957 -0.721976
2009-04-21 08:39:06 51°15.047 2°50.544 -999 0.02708 0.147957 -0.721976
2009-04-21 08:39:10 51°15.046 2°50.538 -999 0.02708 0.14796 -0.721976
2009-04-21 08:39:15 51°15.045 2°50.531 -999 0.02708 0.14796 -0.721976
2009-04-21 08:39:21 51°15.044 2°50.522 -999 0.026978 0.147397 -0.721976
2009-04-21 08:39:25 51°15.043 2°50.516 -999 0.02708 0.14796 -0.721976
2009-04-21 08:39:30 51°15.043 2°50.508 -999 0.02708 0.147965 -0.721976
2009-04-21 08:39:35 51°15.042 2°50.501 -999 0.02708 0.147965 -0.721976
2009-04-21 08:39:41 51°15.041 2°50.492 -999 0.02708 0.147967 -0.721976
2009-04-21 08:39:46 51°15.041 2°50.484 -999 0.02708 0.147967 -0.721976
2009-04-21 08:39:50 51°15.041 2°50.478 -999 0.02708 0.14797 -0.721976
2009-04-21 08:39:55 51°15.041 2°50.471 -999 0.02708 0.147972 -0.721976
2009-04-21 08:40:01 51°15.041 2°50.462 -999 0.026978 0.147412 -0.721976
2009-04-21 08:40:06 51°15.041 2°50.454 -999 0.02708 0.147977 -0.721976
2009-04-21 08:40:10 51°15.04 2°50.448 -999 0.026978 0.147414 -0.721976
2009-04-21 08:40:15 51°15.04 2°50.441 -999 0.026978 0.147414 -0.721976
2009-04-21 08:40:21 51°15.04 2°50.432 -999 0.026978 0.147416 -0.721976
2009-04-21 08:40:26 51°15.039 2°50.424 -999 0.026978 0.147421 -0.721976
2009-04-21 08:40:30 51°15.039 2°50.419 -999 0.026978 0.147421 -0.721976
2009-04-21 08:40:35 51°15.039 2°50.411 -999 0.026978 0.147424 -0.721976
2009-04-21 08:40:41 51°15.039 2°50.402 -999 0.026978 0.147429 -0.721976
2009-04-21 08:40:46 51°15.039 2°50.395 -999 0.026978 0.147429 -0.721976
2009-04-21 08:40:50 51°15.039 2°50.389 -999 0.026978 0.147431 -0.721976
2009-04-21 08:40:55 51°15.038 2°50.382 -999 0.02708 0.148 -0.721976
2009-04-21 08:41:01 51°15.038 2°50.373 -999 0.026978 0.147439 -0.721976
2009-04-21 08:41:06 51°15.037 2°50.366 -999 0.026978 0.147444 -0.721976
2009-04-21 08:41:10 51°15.036 2°50.361 -999 0.026978 0.147444 -0.721976
2009-04-21 08:41:15 51°15.035 2°50.354 -999 0.026978 0.147444 -0.721976
2009-04-21 08:41:21 51°15.034 2°50.346 -999 0.026978 0.147449 -0.721976
2009-04-21 08:41:25 51°15.033 2°50.34 -999 0.026978 0.147451 -0.721976
2009-04-21 08:41:31 51°15.031 2°50.332 -999 0.02708 0.14802 -0.721976
2009-04-21 08:41:35 51°15.03 2°50.327 -999 0.026978 0.147459 -0.721976
2009-04-21 08:41:41 51°15.027 2°50.319 -999 0.026978 0.147459 -0.721976
2009-04-21 08:41:46 51°15.026 2°50.313 -999 0.026978 0.147459 -0.721976
2009-04-21 08:41:50 51°15.024 2°50.309 -999 0.026978 0.147464 -0.721976
2009-04-21 08:41:55 51°15.022 2°50.303 -999 0.026978 0.147466 -0.721976
2009-04-21 08:42:01 51°15.018 2°50.296 -999 0.026978 0.147466 -0.721976
2009-04-21 08:42:06 51°15.016 2°50.29 -999 0.026978 0.147471 -0.721976
2009-04-21 08:42:10 51°15.013 2°50.286 -999 0.026978 0.147469 -0.721976
2009-04-21 08:42:15 51°15.01 2°50.281 -999 0.026978 0.147474 -0.721976
2009-04-21 08:42:21 51°15.007 2°50.275 -999 0.026978 0.147474 -0.721976
2009-04-21 08:42:26 51°15.003 2°50.27 -999 0.026978 0.147474 -0.721976
2009-04-21 08:42:30 51°15 2°50.266 -999 0.026978 0.147474 -0.721976
2009-04-21 08:42:35 51°14.997 2°50.262 -999 0.026978 0.147476 -0.721976
2009-04-21 08:42:41 51°14.993 2°50.257 -999 0.026978 0.147476 -0.721976
2009-04-21 08:42:46 51°14.989 2°50.252 -999 0.026978 0.147476 -0.721976
2009-04-21 08:42:50 51°14.986 2°50.249 -999 0.026978 0.147476 -0.721976
2009-04-21 08:42:55 51°14.983 2°50.244 -999 0.026978 0.147476 -0.721976
2009-04-21 08:43:01 51°14.979 2°50.238 -999 0.026978 0.147479 -0.721976
2009-04-21 08:43:06 51°14.975 2°50.234 -999 0.026978 0.147479 -0.721976
2009-04-21 08:43:10 51°14.973 2°50.229 -999 0.026978 0.147481 -0.721976
2009-04-21 08:43:15 51°14.97 2°50.225 -999 0.026978 0.147481 -0.721976
2009-04-21 08:43:21 51°14.966 2°50.219 -999 0.026978 0.147481 -0.721976
2009-04-21 08:43:25 51°14.963 2°50.214 -999 0.026978 0.147484 -0.721976
2009-04-21 08:43:30 51°14.96 2°50.209 -999 0.026978 0.147484 -0.721976
2009-04-21 08:43:35 51°14.957 2°50.204 -999 0.026978 0.147486 -0.721976
2009-04-21 08:43:41 51°14.953 2°50.198 -999 0.026978 0.147486 -0.721976
2009-04-21 08:43:45 51°14.951 2°50.194 -999 0.026978 0.147486 -0.721976
2009-04-21 08:43:50 51°14.947 2°50.189 -999 0.026978 0.147489 -0.721976
2009-04-21 08:43:55 51°14.944 2°50.183 -999 0.026978 0.147489 -0.721976
2009-04-21 08:44:01 51°14.94 2°50.177 -999 0.026978 0.147491 -0.721976
2009-04-21 08:44:06 51°14.937 2°50.172 -999 0.026978 0.147491 -0.721976
2009-04-21 08:44:10 51°14.935 2°50.168 -999 0.026978 0.147491 -0.721976
2009-04-21 08:44:15 51°14.932 2°50.162 -999 0.026978 0.147491 -0.721976
2009-04-21 08:44:21 51°14.928 2°50.156 -999 0.026978 0.147494 -0.721976
2009-04-21 08:44:26 51°14.925 2°50.151 -999 0.026978 0.147496 -0.721976
2009-04-21 08:44:30 51°14.922 2°50.147 -999 0.026978 0.147499 -0.721976
2009-04-21 08:44:35 51°14.919 2°50.142 -999 0.026978 0.147501 -0.721976
2009-04-21 08:44:41 51°14.915 2°50.136 -999 0.026978 0.147504 -0.721976
2009-04-21 08:44:46 51°14.912 2°50.131 -999 0.026978 0.147504 -0.721976
2009-04-21 08:44:50 51°14.909 2°50.127 -999 0.026978 0.147506 -0.721976
2009-04-21 08:44:55 51°14.906 2°50.122 -999 0.026978 0.147511 -0.721976
2009-04-21 08:45:01 51°14.902 2°50.115 -999 0.026978 0.147514 -0.721976
2009-04-21 08:45:06 51°14.899 2°50.11 -999 0.026978 0.147516 -0.721976
2009-04-21 08:45:10 51°14.897 2°50.106 -999 0.026978 0.147519 -0.721976
2009-04-21 08:45:15 51°14.893 2°50.101 -999 0.026978 0.147519 -0.721976
2009-04-21 08:45:21 51°14.89 2°50.095 -999 0.026978 0.147521 -0.721976
2009-04-21 08:45:26 51°14.887 2°50.089 -999 0.026978 0.147526 -0.721976
2009-04-21 08:45:31 51°14.883 2°50.084 -999 0.026978 0.147528 -0.721976
2009-04-21 08:45:35 51°14.881 2°50.08 -999 0.026978 0.147531 -0.721976
2009-04-21 08:45:41 51°14.877 2°50.074 -999 0.026978 0.147533 -0.721976
2009-04-21 08:45:45 51°14.875 2°50.07 -999 0.026978 0.147533 -0.721976
2009-04-21 08:45:50 51°14.871 2°50.064 -999 0.026978 0.147536 -0.721976
2009-04-21 08:45:55 51°14.868 2°50.059 -999 0.026978 0.147538 -0.721976
2009-04-21 08:46:01 51°14.865 2°50.053 -999 0.026978 0.147541 -0.721976
2009-04-21 08:46:06 51°14.861 2°50.048 -999 0.026978 0.147543 -0.721976
2009-04-21 08:46:10 51°14.859 2°50.044 -999 0.026978 0.147546 -0.721976
2009-04-21 08:46:15 51°14.856 2°50.039 -999 0.026978 0.147546 -0.721976
2009-04-21 08:46:21 51°14.852 2°50.033 -999 0.026978 0.147548 -0.721976
2009-04-21 08:46:26 51°14.849 2°50.027 -999 0.026978 0.147548 -0.721976
2009-04-21 08:46:30 51°14.846 2°50.023 -999 0.026978 0.147551 -0.721976
2009-04-21 08:46:35 51°14.843 2°50.018 -999 0.026978 0.147553 -0.721976
2009-04-21 08:46:41 51°14.839 2°50.012 -999 0.026978 0.147556 -0.721976
2009-04-21 08:46:46 51°14.836 2°50.007 -999 0.026978 0.147556 -0.721976
2009-04-21 08:46:50 51°14.834 2°50.003 -999 0.026978 0.147556 -0.721976
2009-04-21 08:46:55 51°14.83 2°49.998 -999 0.026978 0.147558 -0.721976
2009-04-21 08:47:01 51°14.827 2°49.992 -999 0.026978 0.147561 -0.721976
2009-04-21 08:47:06 51°14.823 2°49.987 -999 0.026978 0.147561 -0.721976
2009-04-21 08:47:10 51°14.821 2°49.983 -999 0.026978 0.147563 -0.721976
2009-04-21 08:47:15 51°14.818 2°49.979 -999 0.026978 0.147563 -0.721976
2009-04-21 08:47:21 51°14.814 2°49.973 -999 0.026978 0.147563 -0.721976
2009-04-21 08:47:26 51°14.811 2°49.968 -999 0.026978 0.147563 -0.721976
2009-04-21 08:47:30 51°14.808 2°49.964 -999 0.026978 0.147566 -0.721976
2009-04-21 08:47:35 51°14.805 2°49.959 -999 0.026875 0.147 -0.721976
2009-04-21 08:47:41 51°14.801 2°49.953 -999 0.026978 0.147566 -0.721976
2009-04-21 08:47:46 51°14.798 2°49.949 -999 0.026978 0.147566 -0.721976
2009-04-21 08:47:50 51°14.795 2°49.945 -999 0.026875 0.147005 -0.721976
2009-04-21 08:47:55 51°14.792 2°49.941 -999 0.026978 0.147566 -0.721976
2009-04-21 08:48:01 51°14.788 2°49.935 -999 0.026978 0.147568 -0.721976
2009-04-21 08:48:05 51°14.785 2°49.931 -999 0.026978 0.147568 -0.721976
2009-04-21 08:48:11 51°14.782 2°49.926 -999 0.026978 0.147571 -0.721976
2009-04-21 08:48:15 51°14.779 2°49.922 -999 0.026978 0.147571 -0.721976
2009-04-21 08:48:21 51°14.775 2°49.916 -999 0.026978 0.147573 -0.721976
2009-04-21 08:48:26 51°14.772 2°49.911 -999 0.026978 0.147573 -0.721976
2009-04-21 08:48:30 51°14.77 2°49.908 -999 0.026978 0.147573 -0.721976
2009-04-21 08:48:35 51°14.766 2°49.903 -999 0.026978 0.147576 -0.7568
2009-04-21 08:48:41 51°14.763 2°49.897 -999 0.026978 0.147576 -0.721976
2009-04-21 08:48:46 51°14.76 2°49.892 -999 0.026978 0.147576 -0.721976
2009-04-21 08:48:50 51°14.757 2°49.888 -999 0.026978 0.147578 -0.721976
2009-04-21 08:48:55 51°14.754 2°49.883 -999 0.026978 0.147578 -0.721976
2009-04-21 08:49:01 51°14.749 2°49.877 -999 0.026978 0.147581 -0.721976
2009-04-21 08:49:06 51°14.746 2°49.871 -999 0.026978 0.147581 -0.721976
2009-04-21 08:49:10 51°14.743 2°49.867 -999 0.026978 0.147583 -0.721976
2009-04-21 08:49:15 51°14.74 2°49.862 -999 0.026978 0.147583 -0.721976
2009-04-21 08:49:21 51°14.736 2°49.855 -999 0.026978 0.147583 -0.7568
2009-04-21 08:49:26 51°14.733 2°49.85 -999 0.026978 0.147586 -0.721976
2009-04-21 08:49:30 51°14.73 2°49.845 -999 0.026978 0.147588 -0.721976
2009-04-21 08:49:35 51°14.727 2°49.84 -999 0.026978 0.147591 -0.721976
2009-04-21 08:49:41 51°14.723 2°49.833 -999 0.026978 0.147593 -0.721976
2009-04-21 08:49:46 51°14.719 2°49.828 -999 0.026978 0.147593 -0.721976
2009-04-21 08:49:50 51°14.716 2°49.823 -999 0.026978 0.147596 -0.721976
2009-04-21 08:49:55 51°14.713 2°49.818 -999 0.026978 0.147596 -0.721976
2009-04-21 08:50:01 51°14.709 2°49.811 -999 0.026978 0.147601 -0.721976
2009-04-21 08:50:06 51°14.705 2°49.805 -999 0.026978 0.147603 -0.721976
2009-04-21 08:50:10 51°14.702 2°49.801 -999 0.026875 0.147039 -0.721976
2009-04-21 08:50:15 51°14.699 2°49.795 -999 0.026875 0.147039 -0.721976
2009-04-21 08:50:21 51°14.694 2°49.788 -999 0.026875 0.147042 -0.721976
2009-04-21 08:50:25 51°14.691 2°49.784 -999 0.026875 0.147044 -0.721976
2009-04-21 08:50:30 51°14.688 2°49.778 -999 0.026978 0.147608 -0.721976
2009-04-21 08:50:35 51°14.684 2°49.773 -999 0.026875 0.147047 -0.721976
2009-04-21 08:50:41 51°14.68 2°49.766 -999 0.026875 0.147049 -0.721976
2009-04-21 08:50:46 51°14.677 2°49.761 -999 0.026875 0.147049 -0.721976
2009-04-21 08:50:50 51°14.674 2°49.756 -999 0.026875 0.147049 -0.7568
2009-04-21 08:50:55 51°14.67 2°49.751 -999 0.026875 0.147052 -0.721976
2009-04-21 08:51:01 51°14.666 2°49.744 -999 0.026875 0.147054 -0.721976
2009-04-21 08:51:06 51°14.663 2°49.738 -999 0.026875 0.147057 -0.721976
2009-04-21 08:51:10 51°14.66 2°49.734 -999 0.026978 0.147623 -0.721976
2009-04-21 08:51:15 51°14.656 2°49.728 -999 0.026978 0.147623 -0.721976
2009-04-21 08:51:21 51°14.652 2°49.722 -999 0.026978 0.147626 -0.721976
2009-04-21 08:51:26 51°14.649 2°49.716 -999 0.026875 0.147064 -0.721976
2009-04-21 08:51:30 51°14.646 2°49.712 -999 0.026875 0.147067 -0.721976
2009-04-21 08:51:35 51°14.642 2°49.706 -999 0.026875 0.147069 -0.721976
2009-04-21 08:51:41 51°14.638 2°49.7 -999 0.026875 0.147072 -0.7568
2009-04-21 08:51:46 51°14.634 2°49.694 -999 0.026875 0.147072 -0.7568
2009-04-21 08:51:51 51°14.631 2°49.689 -999 0.026875 0.147077 -0.721976
2009-04-21 08:51:55 51°14.628 2°49.684 -999 0.026875 0.147079 -0.721976
2009-04-21 08:52:01 51°14.624 2°49.678 -999 0.026875 0.147082 -0.721976
2009-04-21 08:52:06 51°14.62 2°49.672 -999 0.026875 0.147084 -0.721976
2009-04-21 08:52:11 51°14.617 2°49.667 -999 0.026875 0.147087 -0.721976
2009-04-21 08:52:15 51°14.614 2°49.662 -999 0.026875 0.147087 -0.721976
2009-04-21 08:52:21 51°14.61 2°49.656 -999 0.026875 0.147087 -0.721976
2009-04-21 08:52:26 51°14.606 2°49.65 -999 0.026875 0.147089 -0.721976
2009-04-21 08:52:31 51°14.603 2°49.645 -999 0.026875 0.147094 -0.721976
2009-04-21 08:52:35 51°14.6 2°49.64 -999 0.026875 0.147097 -0.7568
2009-04-21 08:52:41 51°14.596 2°49.634 -999 0.026875 0.147099 -0.721976
2009-04-21 08:52:46 51°14.592 2°49.628 -999 0.026875 0.147099 -0.721976
2009-04-21 08:52:51 51°14.589 2°49.622 -999 0.026875 0.147099 -0.721976
2009-04-21 08:52:55 51°14.586 2°49.618 -999 0.026875 0.147102 -0.721976
2009-04-21 08:53:01 51°14.582 2°49.611 -999 0.026875 0.147104 -0.721976
2009-04-21 08:53:06 51°14.578 2°49.605 -999 0.026875 0.147107 -0.721976
2009-04-21 08:53:11 51°14.575 2°49.6 -999 0.026875 0.147109 -0.721976
2009-04-21 08:53:15 51°14.572 2°49.595 -999 0.026875 0.147109 -0.721976
2009-04-21 08:53:21 51°14.568 2°49.588 -999 0.026875 0.147112 -0.721976
2009-04-21 08:53:25 51°14.565 2°49.584 -999 0.026875 0.147112 -0.721976
2009-04-21 08:53:30 51°14.562 2°49.578 -999 0.026875 0.147114 -0.7568
2009-04-21 08:53:36 51°14.557 2°49.572 -999 0.026875 0.147119 -0.721976
2009-04-21 08:53:41 51°14.554 2°49.566 -999 0.026875 0.147119 -0.721976
2009-04-21 08:53:46 51°14.55 2°49.561 -999 0.026875 0.147119 -0.721976
2009-04-21 08:53:50 51°14.547 2°49.556 -999 0.026875 0.147121 -0.721976
2009-04-21 08:53:55 51°14.544 2°49.551 -999 0.026875 0.147124 -0.721976
2009-04-21 08:54:01 51°14.54 2°49.544 -999 0.026875 0.147126 -0.721976
2009-04-21 08:54:06 51°14.536 2°49.538 -999 0.026875 0.147129 -0.7568
2009-04-21 08:54:10 51°14.534 2°49.533 -999 0.026875 0.147131 -0.721976
2009-04-21 08:54:15 51°14.53 2°49.528 -999 0.026875 0.147131 -0.721976
2009-04-21 08:54:20 51°14.526 2°49.522 -999 0.026875 0.147134 -0.7568
2009-04-21 08:54:26 51°14.522 2°49.515 -999 0.026875 0.147134 -0.721976
2009-04-21 08:54:30 51°14.52 2°49.511 -999 0.026875 0.147136 -0.721976
2009-04-21 08:54:35 51°14.516 2°49.505 -999 0.026875 0.147139 -0.721976
2009-04-21 08:54:41 51°14.512 2°49.498 -999 0.026875 0.147141 -0.721976
2009-04-21 08:54:46 51°14.508 2°49.493 -999 0.026875 0.147144 -0.721976
2009-04-21 08:54:50 51°14.505 2°49.488 -999 0.026875 0.147144 -0.721976
2009-04-21 08:54:55 51°14.502 2°49.483 -999 0.026875 0.147144 -0.721976
2009-04-21 08:55:01 51°14.497 2°49.476 -999 0.026875 0.147146 -0.7568
2009-04-21 08:55:06 51°14.494 2°49.47 -999 0.026875 0.147149 -0.7568
2009-04-21 08:55:11 51°14.49 2°49.465 -999 0.026875 0.147151 -0.721976
2009-04-21 08:55:15 51°14.487 2°49.46 -999 0.026875 0.147151 -0.721976
2009-04-21 08:55:21 51°14.483 2°49.454 -999 0.026875 0.147151 -0.721976
2009-04-21 08:55:26 51°14.479 2°49.448 -999 0.026875 0.147154 -0.721976
2009-04-21 08:55:31 51°14.476 2°49.442 -999 0.026875 0.147156 -0.7568
2009-04-21 08:55:36 51°14.472 2°49.437 -999 0.026875 0.147159 -0.721976
2009-04-21 08:55:41 51°14.469 2°49.431 -999 0.026875 0.147161 -0.721976
2009-04-21 08:55:46 51°14.465 2°49.426 -999 0.026875 0.147161 -0.721976
2009-04-21 08:55:50 51°14.462 2°49.421 -999 0.026875 0.147161 -0.721976
2009-04-21 08:55:55 51°14.458 2°49.416 -999 0.026875 0.147164 -0.7568
2009-04-21 08:56:01 51°14.454 2°49.409 -999 0.026875 0.147166 -0.7568
2009-04-21 08:56:06 51°14.451 2°49.403 -999 0.026875 0.147169 -0.721976
2009-04-21 08:56:10 51°14.448 2°49.399 -999 0.026875 0.147171 -0.721976
2009-04-21 08:56:15 51°14.444 2°49.393 -999 0.026875 0.147171 -0.721976
2009-04-21 08:56:21 51°14.44 2°49.387 -999 0.026875 0.147171 -0.7568
2009-04-21 08:56:26 51°14.436 2°49.382 -999 0.026875 0.147174 -0.7568
2009-04-21 08:56:30 51°14.433 2°49.377 -999 0.026875 0.147174 -0.7568
2009-04-21 08:56:35 51°14.43 2°49.372 -999 0.026875 0.147176 -0.721976
2009-04-21 08:56:40 51°14.426 2°49.366 -999 0.026875 0.147179 -0.721976
2009-04-21 08:56:46 51°14.422 2°49.359 -999 0.026875 0.147179 -0.721976
2009-04-21 08:56:50 51°14.419 2°49.355 -999 0.026875 0.147181 -0.721976
2009-04-21 08:56:55 51°14.415 2°49.349 -999 0.026875 0.147184 -0.721976
2009-04-21 08:57:00 51°14.412 2°49.344 -999 0.026875 0.147186 -0.721976
2009-04-21 08:57:05 51°14.408 2°49.339 -999 0.026875 0.147189 -0.7568
2009-04-21 08:57:10 51°14.405 2°49.333 -999 0.026875 0.147189 -0.7568
2009-04-21 08:57:15 51°14.401 2°49.328 -999 0.026875 0.147189 -0.7568
2009-04-21 08:57:21 51°14.397 2°49.321 -999 0.026875 0.147189 -0.721976
2009-04-21 08:57:25 51°14.394 2°49.317 -999 0.026875 0.147191 -0.7568
2009-04-21 08:57:30 51°14.391 2°49.311 -999 0.026875 0.147194 -0.721976
2009-04-21 08:57:35 51°14.387 2°49.306 -999 0.026875 0.147194 -0.721976
2009-04-21 08:57:41 51°14.383 2°49.3 -999 0.026875 0.147196 -0.721976
2009-04-21 08:57:45 51°14.38 2°49.295 -999 0.026875 0.147196 -0.721976
2009-04-21 08:57:50 51°14.377 2°49.29 -999 0.026875 0.147199 -0.721976
2009-04-21 08:57:55 51°14.373 2°49.285 -999 0.026875 0.147199 -0.721976
2009-04-21 08:58:01 51°14.369 2°49.279 -999 0.026875 0.147201 -0.721976
2009-04-21 08:58:05 51°14.367 2°49.275 -999 0.026875 0.147204 -0.7568
2009-04-21 08:58:10 51°14.363 2°49.27 -999 0.026875 0.147206 -0.721976
2009-04-21 08:58:15 51°14.359 2°49.264 -999 0.026875 0.147209 -0.721976
2009-04-21 08:58:21 51°14.355 2°49.258 -999 0.026875 0.147209 -0.721976
2009-04-21 08:58:26 51°14.352 2°49.253 -999 0.026875 0.147211 -0.7568
2009-04-21 08:58:30 51°14.349 2°49.249 -999 0.026875 0.147211 -0.721976
2009-04-21 08:58:35 51°14.346 2°49.244 -999 0.026875 0.147214 -0.721976
2009-04-21 08:58:41 51°14.341 2°49.238 -999 0.026875 0.147216 -0.7568
2009-04-21 08:58:46 51°14.338 2°49.232 -999 0.026875 0.147216 -0.7568
2009-04-21 08:58:50 51°14.335 2°49.228 -999 0.026875 0.147219 -0.7568
2009-04-21 08:58:55 51°14.332 2°49.223 -999 0.026875 0.147221 -0.721976
2009-04-21 08:59:01 51°14.328 2°49.216 -999 0.026875 0.147224 -0.7568
2009-04-21 08:59:06 51°14.324 2°49.211 -999 0.026875 0.147224 -0.721976
2009-04-21 08:59:11 51°14.321 2°49.206 -999 0.026875 0.147226 -0.7568
2009-04-21 08:59:15 51°14.318 2°49.201 -999 0.026875 0.147226 -0.7568
2009-04-21 08:59:20 51°14.314 2°49.196 -999 0.026875 0.147229 -0.721976
2009-04-21 08:59:26 51°14.31 2°49.19 -999 0.026875 0.147229 -0.721976
2009-04-21 08:59:31 51°14.307 2°49.185 -999 0.026875 0.147231 -0.721976
2009-04-21 08:59:35 51°14.304 2°49.18 -999 0.026875 0.147234 -0.721976
2009-04-21 08:59:41 51°14.3 2°49.174 -999 0.026875 0.147236 -0.7568
2009-04-21 08:59:46 51°14.296 2°49.169 -999 0.026772 0.146671 -0.7568
2009-04-21 08:59:51 51°14.293 2°49.164 -999 0.026772 0.146671 -0.7568
2009-04-21 08:59:56 51°14.289 2°49.158 -999 0.026875 0.147236 -0.7568
2009-04-21 09:00:01 51°14.286 2°49.153 -999 0.026875 0.147238 -0.721976
2009-04-21 09:00:06 51°14.282 2°49.148 -999 0.026875 0.147241 -0.721976
2009-04-21 09:00:11 51°14.279 2°49.143 -999 0.026875 0.147243 -0.721976
2009-04-21 09:00:16 51°14.275 2°49.137 -999 0.026875 0.147243 -0.721976
2009-04-21 09:00:21 51°14.272 2°49.132 -999 0.026875 0.147243 -0.721976
2009-04-21 09:00:26 51°14.268 2°49.127 -999 0.026875 0.147246 -0.7568
2009-04-21 09:00:30 51°14.266 2°49.123 -999 0.026875 0.147246 -0.721976
2009-04-21 09:00:36 51°14.262 2°49.116 -999 0.026772 0.146684 -0.721976
2009-04-21 09:00:41 51°14.258 2°49.111 -999 0.026875 0.147251 -0.721976
2009-04-21 09:00:46 51°14.255 2°49.106 -999 0.026875 0.147251 -0.721976
2009-04-21 09:00:50 51°14.252 2°49.101 -999 0.026875 0.147251 -0.721976
2009-04-21 09:00:55 51°14.248 2°49.096 -999 0.026875 0.147253 -0.721976
2009-04-21 09:01:01 51°14.244 2°49.09 -999 0.026875 0.147253 -0.7568
2009-04-21 09:01:06 51°14.241 2°49.085 -999 0.026875 0.147256 -0.7568
2009-04-21 09:01:10 51°14.238 2°49.08 -999 0.026772 0.146694 -0.721976
2009-04-21 09:01:15 51°14.234 2°49.075 -999 0.026772 0.146694 -0.721976
2009-04-21 09:01:20 51°14.231 2°49.07 -999 0.026772 0.146694 -0.7568
2009-04-21 09:01:26 51°14.227 2°49.063 -999 0.026772 0.146696 -0.721976
2009-04-21 09:01:30 51°14.224 2°49.059 -999 0.026772 0.146699 -0.721976
2009-04-21 09:01:35 51°14.22 2°49.053 -999 0.026772 0.146701 -0.7568
2009-04-21 09:01:41 51°14.216 2°49.048 -999 0.026772 0.146704 -0.7568
2009-04-21 09:01:46 51°14.212 2°49.043 -999 0.026772 0.146704 -0.721976
2009-04-21 09:01:50 51°14.21 2°49.038 -999 0.026772 0.146704 -0.721976
2009-04-21 09:01:55 51°14.206 2°49.033 -999 0.026772 0.146706 -0.721976
2009-04-21 09:02:01 51°14.202 2°49.026 -999 0.026772 0.146709 -0.721976
2009-04-21 09:02:05 51°14.199 2°49.022 -999 0.026772 0.146711 -0.721976
2009-04-21 09:02:11 51°14.195 2°49.016 -999 0.026772 0.146711 -0.721976
2009-04-21 09:02:15 51°14.193 2°49.011 -999 0.026772 0.146711 -0.721976
2009-04-21 09:02:21 51°14.188 2°49.005 -999 0.026772 0.146714 -0.721976
2009-04-21 09:02:26 51°14.185 2°49 -999 0.026875 0.147281 -0.721976
2009-04-21 09:02:30 51°14.182 2°48.995 -999 0.026772 0.146719 -0.721976
2009-04-21 09:02:35 51°14.179 2°48.99 -999 0.026772 0.146719 -0.721976
2009-04-21 09:02:41 51°14.175 2°48.984 -999 0.026772 0.146721 -0.721976
2009-04-21 09:02:46 51°14.171 2°48.978 -999 0.026772 0.146721 -0.721976
2009-04-21 09:02:50 51°14.169 2°48.974 -999 0.026772 0.146724 -0.721976
2009-04-21 09:02:55 51°14.165 2°48.969 -999 0.026772 0.146721 -0.7568
2009-04-21 09:03:01 51°14.161 2°48.962 -999 0.026772 0.146726 -0.721976
2009-04-21 09:03:06 51°14.157 2°48.957 -999 0.026772 0.146726 -0.7568
2009-04-21 09:03:11 51°14.154 2°48.952 -999 0.026772 0.146729 -0.721976
2009-04-21 09:03:15 51°14.151 2°48.948 -999 0.026772 0.146729 -0.721976
2009-04-21 09:03:21 51°14.147 2°48.941 -999 0.026772 0.146731 -0.721976
2009-04-21 09:03:26 51°14.144 2°48.936 -999 0.026772 0.146734 -0.721976
2009-04-21 09:03:31 51°14.14 2°48.93 -999 0.026772 0.146736 -0.7568
2009-04-21 09:03:35 51°14.137 2°48.926 -999 0.026772 0.146736 -0.721976
2009-04-21 09:03:41 51°14.133 2°48.92 -999 0.026772 0.146738 -0.721976
2009-04-21 09:03:46 51°14.13 2°48.914 -999 0.026772 0.146738 -0.721976
2009-04-21 09:03:51 51°14.127 2°48.909 -999 0.026772 0.146738 -0.721976
2009-04-21 09:03:55 51°14.124 2°48.904 -999 0.026772 0.146741 -0.721976
2009-04-21 09:04:01 51°14.12 2°48.898 -999 0.026772 0.146743 -0.721976
2009-04-21 09:04:06 51°14.117 2°48.892 -999 0.026772 0.146743 -0.721976
2009-04-21 09:04:11 51°14.114 2°48.887 -999 0.026772 0.146746 -0.721976
2009-04-21 09:04:15 51°14.111 2°48.882 -999 0.026772 0.146746 -0.721976
2009-04-21 09:04:21 51°14.107 2°48.875 -999 0.026772 0.146748 -0.721976
2009-04-21 09:04:25 51°14.105 2°48.871 -999 0.026772 0.146751 -0.721976
2009-04-21 09:04:31 51°14.102 2°48.864 -999 0.026772 0.146751 -0.7568
2009-04-21 09:04:36 51°14.099 2°48.858 -999 0.026772 0.146753 -0.721976
2009-04-21 09:04:41 51°14.096 2°48.852 -999 0.026772 0.146756 -0.7568
2009-04-21 09:04:46 51°14.093 2°48.847 -999 0.026772 0.146756 -0.7568
2009-04-21 09:04:51 51°14.091 2°48.84 -999 0.026772 0.146758 -0.721976
2009-04-21 09:04:56 51°14.088 2°48.834 -999 0.026772 0.146761 -0.721976
2009-04-21 09:05:01 51°14.086 2°48.828 -999 0.026772 0.146761 -0.721976
2009-04-21 09:05:06 51°14.084 2°48.821 -999 0.026772 0.146763 -0.721976
2009-04-21 09:05:10 51°14.082 2°48.816 -999 0.026772 0.146766 -0.721976
2009-04-21 09:05:16 51°14.08 2°48.808 -999 0.026772 0.146768 -0.721976
2009-04-21 09:05:21 51°14.079 2°48.801 -999 0.026772 0.146768 -0.721976
2009-04-21 09:05:26 51°14.077 2°48.795 -999 0.026772 0.146773 -0.7568
2009-04-21 09:05:30 51°14.076 2°48.789 -999 0.026772 0.146776 -0.721976
2009-04-21 09:05:35 51°14.075 2°48.782 -999 0.026772 0.146776 -0.7568
2009-04-21 09:05:41 51°14.073 2°48.774 -999 0.026772 0.146781 -0.721976
2009-04-21 09:05:46 51°14.072 2°48.767 -999 0.026772 0.146781 -0.721976
2009-04-21 09:05:50 51°14.071 2°48.762 -999 0.026772 0.146783 -0.721976
2009-04-21 09:05:55 51°14.07 2°48.755 -999 0.026772 0.146786 -0.7568
2009-04-21 09:06:00 51°14.069 2°48.748 -999 0.026772 0.146788 -0.721976
2009-04-21 09:06:06 51°14.068 2°48.74 -999 0.026772 0.146791 -0.7568
2009-04-21 09:06:10 51°14.067 2°48.734 -999 0.026772 0.146793 -0.7568
2009-04-21 09:06:15 51°14.066 2°48.727 -999 0.026772 0.146793 -0.7568
2009-04-21 09:06:21 51°14.064 2°48.719 -999 0.026772 0.146793 -0.721976
2009-04-21 09:06:26 51°14.064 2°48.712 -999 0.026772 0.146796 -0.721976
2009-04-21 09:06:30 51°14.063 2°48.707 -999 0.026772 0.146798 -0.7568
2009-04-21 09:06:35 51°14.062 2°48.7 -999 0.026772 0.146801 -0.7568
2009-04-21 09:06:41 51°14.061 2°48.692 -999 0.026772 0.146801 -0.7568
2009-04-21 09:06:46 51°14.061 2°48.685 -999 0.026772 0.146801 -0.7568
2009-04-21 09:06:50 51°14.06 2°48.679 -999 0.026772 0.146803 -0.721976
2009-04-21 09:06:55 51°14.06 2°48.672 -999 0.026772 0.146806 -0.7568
2009-04-21 09:07:01 51°14.059 2°48.664 -999 0.026772 0.146806 -0.7568
2009-04-21 09:07:05 51°14.059 2°48.658 -999 0.026772 0.146808 -0.7568
2009-04-21 09:07:10 51°14.059 2°48.651 -999 0.026772 0.146811 -0.7568
2009-04-21 09:07:15 51°14.058 2°48.645 -999 0.026772 0.146813 -0.7568
2009-04-21 09:07:21 51°14.058 2°48.636 -999 0.026772 0.146813 -0.7568
2009-04-21 09:07:26 51°14.059 2°48.629 -999 0.026772 0.146816 -0.7568
2009-04-21 09:07:30 51°14.059 2°48.624 -999 0.026772 0.146816 -0.721976
2009-04-21 09:07:35 51°14.059 2°48.617 -999 0.026772 0.146818 -0.7568
2009-04-21 09:07:41 51°14.06 2°48.608 -999 0.026772 0.146818 -0.7568
2009-04-21 09:07:46 51°14.061 2°48.601 -999 0.026772 0.146818 -0.7568
2009-04-21 09:07:50 51°14.061 2°48.596 -999 0.026772 0.146823 -0.7568
2009-04-21 09:07:55 51°14.062 2°48.589 -999 0.026772 0.146823 -0.7568
2009-04-21 09:08:00 51°14.064 2°48.582 -999 0.026772 0.146825 -0.7568
2009-04-21 09:08:06 51°14.065 2°48.573 -999 0.026772 0.146828 -0.7568
2009-04-21 09:08:10 51°14.066 2°48.568 -999 0.026772 0.14683 -0.7568
2009-04-21 09:08:15 51°14.068 2°48.561 -999 0.026772 0.14683 -0.7568
2009-04-21 09:08:21 51°14.07 2°48.554 -999 0.026772 0.146835 -0.7568
2009-04-21 09:08:26 51°14.072 2°48.548 -999 0.026772 0.146835 -0.7568
2009-04-21 09:08:30 51°14.073 2°48.543 -999 0.026772 0.146838 -0.7568
2009-04-21 09:08:35 51°14.076 2°48.537 -999 0.026772 0.14684 -0.7568
2009-04-21 09:08:41 51°14.078 2°48.531 -999 0.026772 0.146845 -0.7568
2009-04-21 09:08:46 51°14.08 2°48.525 -999 0.026772 0.146845 -0.7568
2009-04-21 09:08:50 51°14.081 2°48.522 -999 0.026772 0.146845 -0.7568
2009-04-21 09:08:55 51°14.083 2°48.518 -999 0.026772 0.14685 -0.7568
2009-04-21 09:09:01 51°14.086 2°48.513 -999 0.026772 0.14685 -0.7568
2009-04-21 09:09:06 51°14.088 2°48.509 -999 0.026772 0.146853 -0.7568
2009-04-21 09:09:10 51°14.089 2°48.506 -999 0.026772 0.146855 -0.721976
2009-04-21 09:09:15 51°14.091 2°48.503 -999 0.026772 0.146858 -0.7568
2009-04-21 09:09:21 51°14.093 2°48.5 -999 0.026772 0.146858 -0.7568
2009-04-21 09:09:25 51°14.095 2°48.498 -999 0.026772 0.14686 -0.7568
2009-04-21 09:09:30 51°14.097 2°48.496 -999 0.026772 0.146863 -0.7568
2009-04-21 09:09:36 51°14.099 2°48.493 -999 0.026772 0.146863 -0.7568
2009-04-21 09:09:41 51°14.1 2°48.491 -999 0.026772 0.146863 -0.7568
2009-04-21 09:09:46 51°14.102 2°48.489 -999 0.026772 0.146863 -0.7568
2009-04-21 09:09:50 51°14.104 2°48.488 -999 0.026772 0.146865 -0.721976
2009-04-21 09:09:55 51°14.105 2°48.487 -999 0.026772 0.146868 -0.7568
2009-04-21 09:10:01 51°14.107 2°48.485 -999 0.026875 0.147436 -0.7568
2009-04-21 09:10:06 51°14.109 2°48.484 -999 0.026772 0.146873 -0.7568
2009-04-21 09:10:10 51°14.11 2°48.483 -999 0.026772 0.146873 -0.7568
2009-04-21 09:10:15 51°14.111 2°48.483 -999 0.026772 0.146873 -0.7568
2009-04-21 09:10:21 51°14.113 2°48.482 -999 0.026772 0.146875 -0.7568
2009-04-21 09:10:26 51°14.114 2°48.481 -999 0.026772 0.146878 -0.7568
2009-04-21 09:10:30 51°14.115 2°48.481 -999 0.026772 0.14688 -0.7568
2009-04-21 09:10:35 51°14.116 2°48.481 -999 0.026772 0.146883 -0.7568
2009-04-21 09:10:40 51°14.118 2°48.48 -999 0.026772 0.146885 -0.7568
2009-04-21 09:10:46 51°14.119 2°48.48 -999 0.026772 0.146885 -0.7568
2009-04-21 09:10:50 51°14.12 2°48.48 -999 0.026772 0.146885 -0.7568
2009-04-21 09:10:55 51°14.121 2°48.48 -999 0.026772 0.146888 -0.7568
2009-04-21 09:11:01 51°14.122 2°48.48 -999 0.026772 0.14689 -0.7568
2009-04-21 09:11:05 51°14.123 2°48.48 -999 0.026772 0.146893 -0.7568
2009-04-21 09:11:10 51°14.124 2°48.48 -999 0.026772 0.146893 -0.7568
2009-04-21 09:11:15 51°14.126 2°48.48 -999 0.026772 0.146893 -0.7568
2009-04-21 09:11:21 51°14.127 2°48.48 -999 0.026772 0.146895 -0.7568
2009-04-21 09:11:25 51°14.127 2°48.481 -999 0.026772 0.146898 -0.7568
2009-04-21 09:11:31 51°14.129 2°48.481 -999 0.026772 0.146898 -0.7568
2009-04-21 09:11:36 51°14.13 2°48.481 -999 0.026772 0.1469 -0.7568
2009-04-21 09:11:41 51°14.131 2°48.482 -999 0.026772 0.146903 -0.7568
2009-04-21 09:11:46 51°14.131 2°48.482 -999 0.026772 0.146903 -0.7568
2009-04-21 09:11:50 51°14.132 2°48.483 -999 0.026772 0.146903 -0.791624
2009-04-21 09:11:55 51°14.133 2°48.483 -999 0.026772 0.146905 -0.7568
2009-04-21 09:12:01 51°14.134 2°48.483 -999 0.026772 0.146905 -0.7568
2009-04-21 09:12:06 51°14.136 2°48.484 -999 0.026772 0.146905 -0.7568
2009-04-21 09:12:10 51°14.137 2°48.484 -999 0.026772 0.146908 -0.7568
2009-04-21 09:12:15 51°14.138 2°48.483 -999 0.026772 0.146908 -0.7568
2009-04-21 09:12:21 51°14.14 2°48.483 -999 0.026772 0.146908 -0.7568
2009-04-21 09:12:26 51°14.142 2°48.483 -999 0.026669 0.146342 -0.7568
2009-04-21 09:12:30 51°14.144 2°48.482 -999 0.026772 0.14691 -0.7568
2009-04-21 09:12:34 51°14.146 2°48.481 -999 0.026772 0.146913 -0.7568
2009-04-21 09:12:40 51°14.149 2°48.481 -999 0.026772 0.146913 -0.7568
2009-04-21 09:12:46 51°14.153 2°48.48 -999 0.026772 0.146915 -0.7568
2009-04-21 09:12:51 51°14.157 2°48.48 -999 0.026772 0.146915 -0.7568
2009-04-21 09:12:55 51°14.16 2°48.48 -999 0.026772 0.146915 -0.7568
2009-04-21 09:13:00 51°14.163 2°48.48 -999 0.026772 0.146915 -0.7568
2009-04-21 09:13:06 51°14.169 2°48.481 -999 0.026772 0.146918 -0.7568
2009-04-21 09:13:10 51°14.174 2°48.481 -999 0.026772 0.14692 -0.7568
2009-04-21 09:13:15 51°14.18 2°48.481 -999 0.026772 0.14692 -0.7568
2009-04-21 09:13:21 51°14.188 2°48.48 -999 0.026669 0.14636 -0.7568
2009-04-21 09:13:26 51°14.196 2°48.48 -999 0.026772 0.146928 -0.721976
2009-04-21 09:13:30 51°14.202 2°48.481 -999 0.026669 0.146362 -0.7568
2009-04-21 09:13:35 51°14.211 2°48.481 -999 0.026772 0.14693 -0.7568
2009-04-21 09:13:41 51°14.221 2°48.483 -999 0.026772 0.146933 -0.7568
2009-04-21 09:13:46 51°14.231 2°48.485 -999 0.026772 0.146933 -0.7568
2009-04-21 09:13:50 51°14.238 2°48.486 -999 0.026669 0.146369 -0.7568
2009-04-21 09:13:55 51°14.249 2°48.488 -999 0.026772 0.146935 -0.7568
2009-04-21 09:14:01 51°14.262 2°48.492 -999 0.026669 0.146374 -0.7568
2009-04-21 09:14:06 51°14.273 2°48.495 -999 0.026772 0.146945 -0.7568
2009-04-21 09:14:10 51°14.282 2°48.498 -999 0.026772 0.146945 -0.7568
2009-04-21 09:14:16 51°14.297 2°48.503 -999 0.026669 0.146384 -0.7568
2009-04-21 09:14:21 51°14.31 2°48.508 -999 0.026669 0.146384 -0.7568
2009-04-21 09:14:26 51°14.322 2°48.513 -999 0.026669 0.146387 -0.7568
2009-04-21 09:14:30 51°14.333 2°48.519 -999 0.026669 0.146389 -0.7568
2009-04-21 09:14:34 51°14.343 2°48.524 -999 0.026669 0.146392 -0.7568
2009-04-21 09:14:41 51°14.363 2°48.534 -999 0.026669 0.146394 -0.7568
2009-04-21 09:14:46 51°14.377 2°48.542 -999 0.026669 0.146394 -0.7568
2009-04-21 09:14:50 51°14.389 2°48.548 -999 0.026669 0.146397 -0.7568
2009-04-21 09:14:55 51°14.404 2°48.556 -999 0.026772 0.146968 -0.7568
2009-04-21 09:15:01 51°14.423 2°48.567 -999 0.026669 0.146402 -0.7568
2009-04-21 09:15:06 51°14.439 2°48.576 -999 0.026669 0.146407 -0.7568
2009-04-21 09:15:10 51°14.451 2°48.584 -999 0.026669 0.146407 -0.7568
2009-04-21 09:15:15 51°14.467 2°48.593 -999 0.026669 0.146407 -0.7568
2009-04-21 09:15:21 51°14.487 2°48.605 -999 0.026772 0.146977 -0.7568
2009-04-21 09:15:25 51°14.5 2°48.612 -999 0.026669 0.146417 -0.7568
2009-04-21 09:15:31 51°14.519 2°48.624 -999 0.026772 0.146985 -0.7568
2009-04-21 09:15:35 51°14.533 2°48.631 -999 0.026772 0.146987 -0.7568
2009-04-21 09:15:41 51°14.552 2°48.643 -999 0.026772 0.14699 -0.7568
2009-04-21 09:15:46 51°14.569 2°48.652 -999 0.026772 0.14699 -0.7568
2009-04-21 09:15:50 51°14.582 2°48.66 -999 0.026772 0.14699 -0.7568
2009-04-21 09:15:55 51°14.598 2°48.67 -999 0.026772 0.146992 -0.7568
2009-04-21 09:16:01 51°14.618 2°48.682 -999 0.026772 0.146995 -0.7568
2009-04-21 09:16:06 51°14.634 2°48.692 -999 0.026772 0.146997 -0.7568
2009-04-21 09:16:10 51°14.647 2°48.7 -999 0.026772 0.147 -0.7568
2009-04-21 09:16:15 51°14.664 2°48.71 -999 0.026772 0.147002 -0.7568
2009-04-21 09:16:21 51°14.684 2°48.722 -999 0.026772 0.147002 -0.7568
2009-04-21 09:16:26 51°14.7 2°48.733 -999 0.026772 0.147005 -0.7568
2009-04-21 09:16:31 51°14.716 2°48.744 -999 0.026772 0.147007 -0.7568
2009-04-21 09:16:35 51°14.729 2°48.752 -999 0.026669 0.146442 -0.7568
2009-04-21 09:16:41 51°14.749 2°48.764 -999 0.026772 0.14701 -0.7568
2009-04-21 09:16:46 51°14.766 2°48.774 -999 0.026772 0.14701 -0.7568
2009-04-21 09:16:50 51°14.779 2°48.783 -999 0.026772 0.147012 -0.7568
2009-04-21 09:16:55 51°14.795 2°48.793 -999 0.026669 0.146449 -0.7568
2009-04-21 09:17:01 51°14.815 2°48.804 -999 0.026772 0.147017 -0.7568
2009-04-21 09:17:06 51°14.832 2°48.813 -999 0.026772 0.14702 -0.7568
2009-04-21 09:17:10 51°14.845 2°48.821 -999 0.026772 0.14702 -0.7568
2009-04-21 09:17:15 51°14.862 2°48.83 -999 0.026772 0.14702 -0.7568
2009-04-21 09:17:20 51°14.879 2°48.839 -999 0.026772 0.147022 -0.7568
2009-04-21 09:17:26 51°14.899 2°48.849 -999 0.026772 0.147025 -0.7568
2009-04-21 09:17:31 51°14.916 2°48.857 -999 0.026669 0.146459 -0.7568
2009-04-21 09:17:35 51°14.93 2°48.863 -999 0.026669 0.146461 -0.7568
2009-04-21 09:17:41 51°14.95 2°48.873 -999 0.026772 0.14703 -0.7568
2009-04-21 09:17:46 51°14.967 2°48.88 -999 0.026772 0.14703 -0.7568
2009-04-21 09:17:51 51°14.984 2°48.888 -999 0.026772 0.14703 -0.7568
2009-04-21 09:17:56 51°15.001 2°48.896 -999 0.026772 0.14703 -0.7568
2009-04-21 09:18:01 51°15.018 2°48.904 -999 0.026772 0.147032 -0.7568
2009-04-21 09:18:06 51°15.035 2°48.913 -999 0.026669 0.146466 -0.7568
2009-04-21 09:18:11 51°15.052 2°48.921 -999 0.026772 0.147035 -0.7568
2009-04-21 09:18:16 51°15.069 2°48.93 -999 0.026772 0.147035 -0.7568
2009-04-21 09:18:21 51°15.086 2°48.939 -999 0.026772 0.147035 -0.7568
2009-04-21 09:18:26 51°15.102 2°48.947 -999 0.026772 0.147037 -0.7568
2009-04-21 09:18:30 51°15.116 2°48.954 -999 0.026772 0.14704 -0.7568
2009-04-21 09:18:36 51°15.136 2°48.964 -999 0.026772 0.14704 -0.7568
2009-04-21 09:18:41 51°15.153 2°48.973 -999 0.026772 0.147042 -0.7568
2009-04-21 09:18:46 51°15.17 2°48.981 -999 0.026772 0.147042 -0.7568
2009-04-21 09:18:50 51°15.183 2°48.988 -999 0.026772 0.147042 -0.7568
2009-04-21 09:18:56 51°15.204 2°48.998 -999 0.026772 0.147045 -0.7568
2009-04-21 09:19:01 51°15.221 2°49.007 -999 0.026772 0.147047 -0.7568
2009-04-21 09:19:06 51°15.238 2°49.016 -999 0.026772 0.147047 -0.7568
2009-04-21 09:19:10 51°15.251 2°49.023 -999 0.026772 0.14705 -0.7568
2009-04-21 09:19:15 51°15.268 2°49.032 -999 0.026772 0.14705 -0.7568
2009-04-21 09:19:21 51°15.289 2°49.042 -999 0.026669 0.146484 -0.7568
2009-04-21 09:19:26 51°15.306 2°49.051 -999 0.026669 0.146486 -0.7568
2009-04-21 09:19:30 51°15.319 2°49.058 -999 0.026772 0.147052 -0.7568
2009-04-21 09:19:35 51°15.336 2°49.067 -999 0.026669 0.146489 -0.7568
2009-04-21 09:19:41 51°15.357 2°49.077 -999 0.026772 0.147057 -0.7568
2009-04-21 09:19:46 51°15.374 2°49.086 -999 0.026669 0.146491 -0.7568
2009-04-21 09:19:50 51°15.387 2°49.093 -999 0.026669 0.146491 -0.7568
2009-04-21 09:19:55 51°15.404 2°49.102 -999 0.026669 0.146494 -0.7568
2009-04-21 09:20:01 51°15.425 2°49.113 -999 0.026669 0.146496 -0.7568
2009-04-21 09:20:06 51°15.442 2°49.121 -999 0.026772 0.147062 -0.7568
2009-04-21 09:20:11 51°15.459 2°49.131 -999 0.026772 0.147065 -0.7568
2009-04-21 09:20:16 51°15.476 2°49.14 -999 0.026772 0.147065 -0.7568